Time,TemperatureF,DewpointF,PressureIn,WindDirection,WindDirectionDegrees,WindSpeedMPH,WindSpeedGustMPH,Humidity,HourlyPrecipIn,Conditions,Clouds,dailyrainin,SoftwareType,DateUTC
2013-01-03 00:01:00,24.6,22.4,29.41,West,279,0.0,0.0,91,0.00,,,0.00,VWS V13.01,2013-01-03 06:01:00,
2013-01-03 00:02:00,24.6,22.4,29.41,West,279,0.0,0.0,91,0.00,,,0.00,VWS V13.01,2013-01-03 06:02:00,
2013-01-03 00:03:00,24.8,22.5,29.41,West,279,0.0,0.0,91,0.00,,,0.00,VWS V13.01,2013-01-03 06:03:00,
2013-01-03 00:06:00,24.8,22.5,29.41,West,279,0.0,0.0,91,0.00,,,0.00,VWS V13.01,2013-01-03 06:06:00,
2013-01-03 00:07:00,24.8,22.5,29.41,West,279,0.0,0.0,91,0.00,,,0.00,VWS V13.01,2013-01-03 06:07:00,
2013-01-03 00:08:00,24.8,22.5,29.41,West,279,0.0,0.0,91,0.00,,,0.00,VWS V13.01,2013-01-03 06:08:00,
2013-01-03 00:11:00,25.0,22.7,29.41,West,279,0.0,0.0,91,0.00,,,0.00,VWS V13.01,2013-01-03 06:11:00,
2013-01-03 00:12:00,25.0,22.7,29.41,West,279,0.0,0.0,91,0.00,,,0.00,VWS V13.01,2013-01-03 06:12:00,
2013-01-03 00:13:00,25.0,22.7,29.41,West,279,0.0,0.0,91,0.00,,,0.00,VWS V13.01,2013-01-03 06:13:00,
2013-01-03 00:16:00,25.0,22.7,29.41,West,279,0.0,0.0,91,0.00,,,0.00,VWS V13.01,2013-01-03 06:16:00,
2013-01-03 00:17:00,25.0,22.7,29.41,West,279,0.0,0.0,91,0.00,,,0.00,VWS V13.01,2013-01-03 06:17:00,
2013-01-03 00:18:00,25.0,22.7,29.41,West,279,0.0,0.0,91,0.00,,,0.00,VWS V13.01,2013-01-03 06:18:00,
2013-01-03 00:21:00,25.2,22.9,29.41,West,279,0.0,0.0,91,0.00,,,0.00,VWS V13.01,2013-01-03 06:21:00,
2013-01-03 00:22:00,25.2,22.9,29.41,West,279,0.0,0.0,91,0.00,,,0.00,VWS V13.01,2013-01-03 06:22:00,
2013-01-03 00:23:00,25.2,22.9,29.41,West,279,0.0,0.0,91,0.00,,,0.00,VWS V13.01,2013-01-03 06:23:00,
2013-01-03 00:26:00,25.3,23.1,29.41,West,279,0.0,0.0,91,0.00,,,0.00,VWS V13.01,2013-01-03 06:26:00,
2013-01-03 00:27:00,25.3,23.1,29.41,West,279,0.0,0.0,91,0.00,,,0.00,VWS V13.01,2013-01-03 06:27:00,
2013-01-03 00:28:00,25.3,23.1,29.38,West,279,0.0,0.0,91,0.00,,,0.00,VWS V13.01,2013-01-03 06:28:00,
2013-01-03 00:31:00,25.3,23.1,29.38,West,279,0.0,0.0,91,0.00,,,0.00,VWS V13.01,2013-01-03 06:31:00,
2013-01-03 00:32:00,25.3,23.1,29.38,West,279,0.0,0.0,91,0.00,,,0.00,VWS V13.01,2013-01-03 06:32:00,
2013-01-03 00:33:00,25.3,23.1,29.38,West,279,0.0,0.0,91,0.00,,,0.00,VWS V13.01,2013-01-03 06:33:00,
2013-01-03 00:36:00,25.3,23.1,29.38,West,279,0.0,0.0,91,0.00,,,0.00,VWS V13.01,2013-01-03 06:36:00,
2013-01-03 00:37:00,25.3,23.1,29.38,West,279,0.0,0.0,91,0.00,,,0.00,VWS V13.01,2013-01-03 06:37:00,
2013-01-03 00:38:00,25.3,23.1,29.38,West,279,0.0,0.0,91,0.00,,,0.00,VWS V13.01,2013-01-03 06:38:00,
2013-01-03 00:42:00,25.3,23.1,29.38,West,279,0.0,0.0,91,0.00,,,0.00,VWS V13.01,2013-01-03 06:42:00,
2013-01-03 00:43:00,25.3,23.1,29.41,West,279,0.0,0.0,91,0.00,,,0.00,VWS V13.01,2013-01-03 06:43:00,
2013-01-03 00:47:00,25.3,23.1,29.41,WNW,284,0.0,0.0,91,0.00,,,0.00,VWS V13.01,2013-01-03 06:47:00,
2013-01-03 00:48:00,25.3,23.1,29.41,WNW,284,0.0,0.0,91,0.00,,,0.00,VWS V13.01,2013-01-03 06:48:00,
2013-01-03 00:52:00,25.5,23.3,29.41,WNW,284,0.0,0.0,91,0.00,,,0.00,VWS V13.01,2013-01-03 06:52:00,
2013-01-03 00:53:00,25.5,23.3,29.41,WNW,284,0.0,0.0,91,0.00,,,0.00,VWS V13.01,2013-01-03 06:53:00,
2013-01-03 00:57:00,25.5,23.3,29.41,WNW,283,0.0,0.0,91,0.00,,,0.00,VWS V13.01,2013-01-03 06:57:00,
2013-01-03 00:58:00,25.7,23.4,29.41,WNW,284,0.0,0.0,91,0.00,,,0.00,VWS V13.01,2013-01-03 06:58:00,
2013-01-03 01:02:00,25.7,23.4,29.41,WNW,284,0.0,0.0,91,0.00,,,0.00,VWS V13.01,2013-01-03 07:02:00,
2013-01-03 01:03:00,25.7,23.4,29.41,WNW,284,0.0,0.0,91,0.00,,,0.00,VWS V13.01,2013-01-03 07:03:00,
2013-01-03 01:07:00,25.9,23.6,29.41,WNW,284,0.0,0.0,91,0.00,,,0.00,VWS V13.01,2013-01-03 07:07:00,
2013-01-03 01:08:00,25.9,23.6,29.41,WNW,284,0.0,0.0,91,0.00,,,0.00,VWS V13.01,2013-01-03 07:08:00,
2013-01-03 01:12:00,26.1,23.8,29.41,WNW,284,0.0,0.0,91,0.00,,,0.00,VWS V13.01,2013-01-03 07:12:00,
2013-01-03 01:13:00,26.1,23.8,29.41,WNW,283,0.0,0.0,91,0.00,,,0.00,VWS V13.01,2013-01-03 07:13:00,
2013-01-03 01:17:00,26.1,23.8,29.41,WNW,283,0.0,0.0,91,0.00,,,0.00,VWS V13.01,2013-01-03 07:17:00,
2013-01-03 01:19:00,26.1,23.8,29.41,WNW,283,0.0,0.0,91,0.00,,,0.00,VWS V13.01,2013-01-03 07:19:00,
2013-01-03 01:22:00,26.2,24.0,29.41,WNW,283,0.0,0.0,91,0.00,,,0.00,VWS V13.01,2013-01-03 07:22:00,
2013-01-03 01:24:00,26.2,24.0,29.41,WNW,283,0.0,0.0,91,0.00,,,0.00,VWS V13.01,2013-01-03 07:24:00,
2013-01-03 01:27:00,26.4,24.1,29.41,WNW,283,0.0,0.0,91,0.00,,,0.00,VWS V13.01,2013-01-03 07:27:00,
2013-01-03 01:29:00,26.4,24.1,29.41,WNW,283,0.0,0.0,91,0.00,,,0.00,VWS V13.01,2013-01-03 07:29:00,
2013-01-03 01:32:00,26.6,24.3,29.41,WNW,283,0.0,0.0,91,0.00,,,0.00,VWS V13.01,2013-01-03 07:32:00,
2013-01-03 01:34:00,26.6,24.3,29.41,WNW,283,0.0,0.0,91,0.00,,,0.00,VWS V13.01,2013-01-03 07:34:00,
2013-01-03 01:37:00,26.6,24.3,29.41,WNW,283,0.0,0.0,91,0.00,,,0.00,VWS V13.01,2013-01-03 07:37:00,
2013-01-03 01:39:00,26.8,22.9,29.41,WNW,283,0.0,0.0,85,0.00,,,0.00,VWS V13.01,2013-01-03 07:39:00,
2013-01-03 01:42:00,26.8,22.9,29.41,WNW,283,0.0,0.0,85,0.00,,,0.00,VWS V13.01,2013-01-03 07:42:00,
2013-01-03 01:43:00,26.8,22.9,29.41,WNW,283,0.0,0.0,85,0.00,,,0.00,VWS V13.01,2013-01-03 07:43:00,
2013-01-03 01:44:00,27.0,23.1,29.41,WNW,283,0.0,0.0,85,0.00,,,0.00,VWS V13.01,2013-01-03 07:44:00,
2013-01-03 01:47:00,27.0,23.1,29.41,WNW,283,0.0,0.0,85,0.00,,,0.00,VWS V13.01,2013-01-03 07:47:00,
2013-01-03 01:48:00,27.0,23.1,29.41,WNW,283,0.0,0.0,85,0.00,,,0.00,VWS V13.01,2013-01-03 07:48:00,
2013-01-03 01:49:00,27.0,23.1,29.41,WNW,283,0.0,0.0,85,0.00,,,0.00,VWS V13.01,2013-01-03 07:49:00,
2013-01-03 01:52:00,27.0,23.1,29.41,WNW,283,0.0,0.0,85,0.00,,,0.00,VWS V13.01,2013-01-03 07:52:00,
2013-01-03 01:53:00,27.0,23.1,29.41,WNW,283,0.0,0.0,85,0.00,,,0.00,VWS V13.01,2013-01-03 07:53:00,
2013-01-03 01:54:00,27.0,23.1,29.41,WNW,283,0.0,0.0,85,0.00,,,0.00,VWS V13.01,2013-01-03 07:54:00,
2013-01-03 01:57:00,27.0,23.1,29.41,WNW,283,0.0,0.0,85,0.00,,,0.00,VWS V13.01,2013-01-03 07:57:00,
2013-01-03 01:58:00,27.0,23.1,29.41,WNW,283,0.0,0.0,85,0.00,,,0.00,VWS V13.01,2013-01-03 07:58:00,
2013-01-03 02:00:00,27.0,23.1,29.41,WNW,283,0.0,0.0,85,0.00,,,0.00,VWS V13.01,2013-01-03 08:00:00,
2013-01-03 02:02:00,27.0,23.1,29.41,WNW,283,0.0,0.0,85,0.00,,,0.00,VWS V13.01,2013-01-03 08:02:00,
2013-01-03 02:03:00,27.1,23.2,29.41,WNW,283,0.0,0.0,85,0.00,,,0.00,VWS V13.01,2013-01-03 08:03:00,
2013-01-03 02:05:00,27.1,23.2,29.41,WNW,283,0.0,0.0,85,0.00,,,0.00,VWS V13.01,2013-01-03 08:05:00,
2013-01-03 02:07:00,27.1,23.2,29.41,WNW,283,0.0,0.0,85,0.00,,,0.00,VWS V13.01,2013-01-03 08:07:00,
2013-01-03 02:08:00,27.1,23.2,29.41,WNW,283,0.0,0.0,85,0.00,,,0.00,VWS V13.01,2013-01-03 08:08:00,
2013-01-03 02:10:00,27.1,23.2,29.41,WNW,283,0.0,0.0,85,0.00,,,0.00,VWS V13.01,2013-01-03 08:10:00,
2013-01-03 02:12:00,27.1,23.2,29.44,WNW,283,0.0,0.0,85,0.00,,,0.00,VWS V13.01,2013-01-03 08:12:00,
2013-01-03 02:13:00,27.1,23.2,29.44,WNW,283,0.0,0.0,85,0.00,,,0.00,VWS V13.01,2013-01-03 08:13:00,
2013-01-03 02:15:00,27.1,23.2,29.44,WNW,283,0.0,0.0,85,0.00,,,0.00,VWS V13.01,2013-01-03 08:15:00,
2013-01-03 02:17:00,27.1,23.2,29.44,WNW,283,0.0,0.0,85,0.00,,,0.00,VWS V13.01,2013-01-03 08:17:00,
2013-01-03 02:18:00,27.1,23.2,29.44,WNW,283,0.0,0.0,85,0.00,,,0.00,VWS V13.01,2013-01-03 08:18:00,
2013-01-03 02:20:00,27.3,23.4,29.44,WNW,283,0.0,0.0,85,0.00,,,0.00,VWS V13.01,2013-01-03 08:20:00,
2013-01-03 02:22:00,27.1,23.2,29.44,WNW,283,0.0,0.0,85,0.00,,,0.00,VWS V13.01,2013-01-03 08:22:00,
2013-01-03 02:23:00,27.1,23.2,29.44,WNW,283,0.0,0.0,85,0.00,,,0.00,VWS V13.01,2013-01-03 08:23:00,
2013-01-03 02:25:00,27.1,23.2,29.44,WNW,283,0.0,0.0,85,0.00,,,0.00,VWS V13.01,2013-01-03 08:25:00,
2013-01-03 02:27:00,27.1,23.2,29.44,WNW,283,0.0,0.0,85,0.00,,,0.00,VWS V13.01,2013-01-03 08:27:00,
2013-01-03 02:28:00,27.1,23.2,29.44,WNW,283,0.0,0.0,85,0.00,,,0.00,VWS V13.01,2013-01-03 08:28:00,
2013-01-03 02:29:00,27.1,23.2,29.44,WNW,283,0.0,0.0,85,0.00,,,0.00,VWS V13.01,2013-01-03 08:29:00,
2013-01-03 02:30:00,27.1,23.2,29.44,WNW,283,0.0,0.0,85,0.00,,,0.00,VWS V13.01,2013-01-03 08:30:00,
2013-01-03 02:32:00,27.0,27.0,29.44,WNW,283,0.0,0.0,100,0.00,,,0.00,VWS V13.01,2013-01-03 08:32:00,
2013-01-03 02:33:00,27.0,27.0,29.44,WNW,283,0.0,0.0,100,0.00,,,0.00,VWS V13.01,2013-01-03 08:33:00,
2013-01-03 02:34:00,27.0,27.0,29.44,WNW,283,0.0,0.0,100,0.00,,,0.00,VWS V13.01,2013-01-03 08:34:00,
2013-01-03 02:35:00,27.0,27.0,29.44,WNW,283,0.0,0.0,100,0.00,,,0.00,VWS V13.01,2013-01-03 08:35:00,
2013-01-03 02:37:00,27.0,27.0,29.44,WNW,283,0.0,0.0,100,0.00,,,0.00,VWS V13.01,2013-01-03 08:37:00,
2013-01-03 02:38:00,27.0,27.0,29.44,WNW,283,0.0,0.0,100,0.00,,,0.00,VWS V13.01,2013-01-03 08:38:00,
2013-01-03 02:39:00,27.0,27.0,29.44,WNW,283,0.0,0.0,100,0.00,,,0.00,VWS V13.01,2013-01-03 08:39:00,
2013-01-03 02:40:00,27.0,27.0,29.44,WNW,283,0.0,0.0,100,0.00,,,0.00,VWS V13.01,2013-01-03 08:40:00,
2013-01-03 02:42:00,26.8,26.8,29.44,WNW,283,0.0,0.0,100,0.00,,,0.00,VWS V13.01,2013-01-03 08:42:00,
2013-01-03 02:43:00,26.8,26.8,29.44,WNW,283,0.0,0.0,100,0.00,,,0.00,VWS V13.01,2013-01-03 08:43:00,
2013-01-03 02:44:00,26.8,26.8,29.44,WNW,283,0.0,0.0,100,0.00,,,0.00,VWS V13.01,2013-01-03 08:44:00,
2013-01-03 02:45:00,26.6,26.6,29.44,WNW,283,0.0,0.0,100,0.00,,,0.00,VWS V13.01,2013-01-03 08:45:00,
2013-01-03 02:48:00,26.1,26.1,29.44,WNW,283,0.0,0.0,100,0.00,,,0.00,VWS V13.01,2013-01-03 08:48:00,
2013-01-03 02:49:00,25.9,25.9,29.44,WNW,283,0.0,0.0,100,0.00,,,0.00,VWS V13.01,2013-01-03 08:49:00,
2013-01-03 02:50:00,25.7,25.7,29.44,WNW,283,0.0,0.0,100,0.00,,,0.00,VWS V13.01,2013-01-03 08:50:00,
2013-01-03 02:53:00,25.7,25.7,29.44,WNW,283,0.0,0.0,100,0.00,,,0.00,VWS V13.01,2013-01-03 08:53:00,
2013-01-03 02:54:00,25.5,25.5,29.44,WNW,283,0.0,0.0,100,0.00,,,0.00,VWS V13.01,2013-01-03 08:54:00,
2013-01-03 02:55:00,25.5,25.5,29.44,WNW,283,0.0,0.0,100,0.00,,,0.00,VWS V13.01,2013-01-03 08:55:00,
2013-01-03 02:58:00,25.2,25.2,29.44,WNW,283,0.0,0.0,100,0.00,,,0.00,VWS V13.01,2013-01-03 08:58:00,
2013-01-03 02:59:00,24.8,24.8,29.44,WNW,283,0.0,0.0,100,0.00,,,0.00,VWS V13.01,2013-01-03 08:59:00,
2013-01-03 03:00:00,24.8,24.8,29.44,WNW,283,0.0,0.0,100,0.00,,,0.00,VWS V13.01,2013-01-03 09:00:00,
2013-01-03 03:03:00,24.4,24.4,29.44,WNW,283,0.0,0.0,100,0.00,,,0.00,VWS V13.01,2013-01-03 09:03:00,
2013-01-03 03:04:00,24.4,24.4,29.44,WNW,283,0.0,0.0,100,0.00,,,0.00,VWS V13.01,2013-01-03 09:04:00,
2013-01-03 03:05:00,24.4,24.4,29.44,WNW,283,0.0,0.0,100,0.00,,,0.00,VWS V13.01,2013-01-03 09:05:00,
2013-01-03 03:08:00,24.4,24.4,29.44,WNW,283,0.0,0.0,100,0.00,,,0.00,VWS V13.01,2013-01-03 09:08:00,
2013-01-03 03:09:00,24.3,24.3,29.44,WNW,283,0.0,0.0,100,0.00,,,0.00,VWS V13.01,2013-01-03 09:09:00,
2013-01-03 03:10:00,24.1,24.1,29.44,WNW,284,0.0,0.0,100,0.00,,,0.00,VWS V13.01,2013-01-03 09:10:00,
2013-01-03 03:13:00,24.1,24.1,29.44,WNW,283,0.0,0.0,100,0.00,,,0.00,VWS V13.01,2013-01-03 09:13:00,
2013-01-03 03:14:00,24.1,24.1,29.44,WNW,283,0.0,0.0,100,0.00,,,0.00,VWS V13.01,2013-01-03 09:14:00,
2013-01-03 03:15:00,24.1,24.1,29.44,WNW,283,0.0,0.0,100,0.00,,,0.00,VWS V13.01,2013-01-03 09:15:00,
2013-01-03 03:18:00,24.3,24.3,29.44,WNW,284,0.0,0.0,100,0.00,,,0.00,VWS V13.01,2013-01-03 09:18:00,
2013-01-03 03:19:00,24.3,24.3,29.44,WNW,283,0.0,0.0,100,0.00,,,0.00,VWS V13.01,2013-01-03 09:19:00,
2013-01-03 03:20:00,24.1,24.1,29.44,WNW,283,0.0,0.0,100,0.00,,,0.00,VWS V13.01,2013-01-03 09:20:00,
2013-01-03 03:23:00,24.1,24.1,29.44,WNW,283,0.0,0.0,100,0.00,,,0.00,VWS V13.01,2013-01-03 09:23:00,
2013-01-03 03:24:00,23.9,23.9,29.44,WNW,283,0.0,0.0,100,0.00,,,0.00,VWS V13.01,2013-01-03 09:24:00,
2013-01-03 03:26:00,23.9,23.9,29.44,WNW,283,0.0,0.0,100,0.00,,,0.00,VWS V13.01,2013-01-03 09:26:00,
2013-01-03 03:28:00,23.9,23.9,29.44,WNW,283,0.0,0.0,100,0.00,,,0.00,VWS V13.01,2013-01-03 09:28:00,
2013-01-03 03:30:00,24.1,24.1,29.44,WNW,283,0.0,0.0,100,0.00,,,0.00,VWS V13.01,2013-01-03 09:30:00,
2013-01-03 03:31:00,23.9,23.9,29.44,WNW,283,0.0,0.0,100,0.00,,,0.00,VWS V13.01,2013-01-03 09:31:00,
2013-01-03 03:33:00,23.9,23.9,29.44,WNW,283,0.0,0.0,100,0.00,,,0.00,VWS V13.01,2013-01-03 09:33:00,
2013-01-03 03:35:00,23.7,23.7,29.44,WNW,283,0.0,0.0,100,0.00,,,0.00,VWS V13.01,2013-01-03 09:35:00,
2013-01-03 03:36:00,23.5,23.5,29.44,WNW,283,0.0,0.0,100,0.00,,,0.00,VWS V13.01,2013-01-03 09:36:00,
2013-01-03 03:38:00,23.5,23.5,29.44,WNW,283,0.0,0.0,100,0.00,,,0.00,VWS V13.01,2013-01-03 09:38:00,
2013-01-03 03:40:00,23.5,23.5,29.44,WNW,283,0.0,0.0,100,0.00,,,0.00,VWS V13.01,2013-01-03 09:40:00,
2013-01-03 03:41:00,23.5,23.5,29.44,WNW,283,0.0,0.0,100,0.00,,,0.00,VWS V13.01,2013-01-03 09:41:00,
2013-01-03 03:43:00,23.4,23.4,29.44,WNW,283,0.0,0.0,100,0.00,,,0.00,VWS V13.01,2013-01-03 09:43:00,
2013-01-03 03:45:00,23.4,23.4,29.44,WNW,283,0.0,0.0,100,0.00,,,0.00,VWS V13.01,2013-01-03 09:45:00,
2013-01-03 03:46:00,23.2,23.2,29.44,WNW,283,0.0,0.0,100,0.00,,,0.00,VWS V13.01,2013-01-03 09:46:00,
2013-01-03 03:48:00,23.2,23.2,29.44,WNW,283,0.0,0.0,100,0.00,,,0.00,VWS V13.01,2013-01-03 09:48:00,
2013-01-03 03:50:00,23.0,23.0,29.44,WNW,284,0.0,0.0,100,0.00,,,0.00,VWS V13.01,2013-01-03 09:50:00,
2013-01-03 03:51:00,22.8,22.8,29.44,WNW,284,0.0,0.0,100,0.00,,,0.00,VWS V13.01,2013-01-03 09:51:00,
2013-01-03 03:53:00,22.6,22.6,29.44,WNW,283,0.0,0.0,100,0.00,,,0.00,VWS V13.01,2013-01-03 09:53:00,
2013-01-03 03:55:00,22.8,22.8,29.44,WNW,283,0.0,0.0,100,0.00,,,0.00,VWS V13.01,2013-01-03 09:55:00,
2013-01-03 03:56:00,22.8,22.8,29.44,WNW,283,0.0,0.0,100,0.00,,,0.00,VWS V13.01,2013-01-03 09:56:00,
2013-01-03 03:58:00,22.6,22.6,29.44,WNW,283,0.0,0.0,100,0.00,,,0.00,VWS V13.01,2013-01-03 09:58:00,
2013-01-03 03:59:00,22.6,22.6,29.44,WNW,283,0.0,0.0,100,0.00,,,0.00,VWS V13.01,2013-01-03 09:59:00,
2013-01-03 04:00:00,22.6,22.6,29.44,WNW,283,0.0,0.0,100,0.00,,,0.00,VWS V13.01,2013-01-03 10:00:00,
2013-01-03 04:01:00,22.6,22.6,29.44,WNW,283,0.0,0.0,100,0.00,,,0.00,VWS V13.01,2013-01-03 10:01:00,
2013-01-03 04:03:00,22.5,22.5,29.44,WNW,283,0.0,0.0,100,0.00,,,0.00,VWS V13.01,2013-01-03 10:03:00,
2013-01-03 04:04:00,22.5,22.5,29.44,WNW,284,0.0,0.0,100,0.00,,,0.00,VWS V13.01,2013-01-03 10:04:00,
2013-01-03 04:05:00,22.5,22.5,29.44,WNW,284,0.0,0.0,100,0.00,,,0.00,VWS V13.01,2013-01-03 10:05:00,
2013-01-03 04:06:00,22.6,22.6,29.44,WNW,283,0.0,0.0,100,0.00,,,0.00,VWS V13.01,2013-01-03 10:06:00,
2013-01-03 04:08:00,22.5,22.5,29.44,WNW,283,0.0,0.0,100,0.00,,,0.00,VWS V13.01,2013-01-03 10:08:00,
2013-01-03 04:09:00,22.5,22.5,29.44,WNW,283,0.0,0.0,100,0.00,,,0.00,VWS V13.01,2013-01-03 10:09:00,
2013-01-03 04:10:00,22.5,22.5,29.44,WNW,283,0.0,0.0,100,0.00,,,0.00,VWS V13.01,2013-01-03 10:10:00,
2013-01-03 04:11:00,22.1,22.1,29.44,WNW,283,0.0,0.0,100,0.00,,,0.00,VWS V13.01,2013-01-03 10:11:00,
2013-01-03 04:13:00,22.1,22.1,29.44,WNW,283,0.0,0.0,100,0.00,,,0.00,VWS V13.01,2013-01-03 10:13:00,
2013-01-03 04:14:00,22.1,22.1,29.44,WNW,283,0.0,0.0,100,0.00,,,0.00,VWS V13.01,2013-01-03 10:14:00,
2013-01-03 04:15:00,21.9,21.9,29.44,WNW,283,0.0,0.0,100,0.00,,,0.00,VWS V13.01,2013-01-03 10:15:00,
2013-01-03 04:16:00,21.9,21.9,29.44,WNW,283,0.0,0.0,100,0.00,,,0.00,VWS V13.01,2013-01-03 10:16:00,
2013-01-03 04:19:00,21.9,21.9,29.44,WNW,283,0.0,0.0,100,0.00,,,0.00,VWS V13.01,2013-01-03 10:19:00,
2013-01-03 04:20:00,21.9,21.9,29.44,WNW,283,0.0,0.0,100,0.00,,,0.00,VWS V13.01,2013-01-03 10:20:00,
2013-01-03 04:21:00,21.9,21.9,29.44,WNW,283,0.0,0.0,100,0.00,,,0.00,VWS V13.01,2013-01-03 10:21:00,
2013-01-03 04:24:00,22.1,22.1,29.44,WNW,283,0.0,0.0,100,0.00,,,0.00,VWS V13.01,2013-01-03 10:24:00,
2013-01-03 04:25:00,22.3,22.3,29.44,WNW,283,0.0,0.0,100,0.00,,,0.00,VWS V13.01,2013-01-03 10:25:00,
2013-01-03 04:26:00,22.1,22.1,29.44,WNW,283,0.0,0.0,100,0.00,,,0.00,VWS V13.01,2013-01-03 10:26:00,
2013-01-03 04:29:00,22.1,22.1,29.44,WNW,283,0.0,0.0,100,0.00,,,0.00,VWS V13.01,2013-01-03 10:29:00,
2013-01-03 04:30:00,22.3,22.3,29.44,WNW,283,0.0,0.0,100,0.00,,,0.00,VWS V13.01,2013-01-03 10:30:00,
2013-01-03 04:31:00,22.3,22.3,29.44,WNW,283,0.0,0.0,100,0.00,,,0.00,VWS V13.01,2013-01-03 10:31:00,
2013-01-03 04:34:00,22.3,22.3,29.44,WNW,283,0.0,0.0,100,0.00,,,0.00,VWS V13.01,2013-01-03 10:34:00,
2013-01-03 04:35:00,22.3,22.3,29.44,WNW,283,0.0,0.0,100,0.00,,,0.00,VWS V13.01,2013-01-03 10:35:00,
2013-01-03 04:36:00,22.3,22.3,29.44,WNW,283,0.0,0.0,100,0.00,,,0.00,VWS V13.01,2013-01-03 10:36:00,
2013-01-03 04:39:00,22.1,22.1,29.44,WNW,283,0.0,0.0,100,0.00,,,0.00,VWS V13.01,2013-01-03 10:39:00,
2013-01-03 04:40:00,21.9,21.9,29.44,WNW,283,0.0,0.0,100,0.00,,,0.00,VWS V13.01,2013-01-03 10:40:00,
2013-01-03 04:42:00,22.1,22.1,29.44,WNW,283,0.0,0.0,100,0.00,,,0.00,VWS V13.01,2013-01-03 10:42:00,
2013-01-03 04:44:00,22.1,22.1,29.41,WNW,283,0.0,0.0,100,0.00,,,0.00,VWS V13.01,2013-01-03 10:44:00,
2013-01-03 04:45:00,21.9,21.9,29.41,WNW,283,0.0,0.0,100,0.00,,,0.00,VWS V13.01,2013-01-03 10:45:00,
2013-01-03 04:47:00,21.9,21.9,29.41,WNW,283,0.0,0.0,100,0.00,,,0.00,VWS V13.01,2013-01-03 10:47:00,
2013-01-03 04:49:00,21.6,21.6,29.41,WNW,284,0.0,0.0,100,0.00,,,0.00,VWS V13.01,2013-01-03 10:49:00,
2013-01-03 04:50:00,21.6,21.6,29.41,WNW,283,0.0,0.0,100,0.00,,,0.00,VWS V13.01,2013-01-03 10:50:00,
2013-01-03 04:52:00,21.6,21.6,29.41,WNW,283,0.0,0.0,100,0.00,,,0.00,VWS V13.01,2013-01-03 10:52:00,
2013-01-03 04:54:00,21.6,21.6,29.41,WNW,283,0.0,0.0,100,0.00,,,0.00,VWS V13.01,2013-01-03 10:54:00,
2013-01-03 04:55:00,21.6,21.6,29.41,WNW,283,0.0,0.0,100,0.00,,,0.00,VWS V13.01,2013-01-03 10:55:00,
2013-01-03 04:57:00,21.6,21.6,29.41,WNW,283,0.0,0.0,100,0.00,,,0.00,VWS V13.01,2013-01-03 10:57:00,
2013-01-03 04:59:00,21.4,21.4,29.44,WNW,283,0.0,0.0,100,0.00,,,0.00,VWS V13.01,2013-01-03 10:59:00,
2013-01-03 05:00:00,21.4,21.4,29.44,WNW,283,0.0,0.0,100,0.00,,,0.00,VWS V13.01,2013-01-03 11:00:00,
2013-01-03 05:01:00,21.4,21.4,29.44,WNW,283,0.0,0.0,100,0.00,,,0.00,VWS V13.01,2013-01-03 11:01:00,
2013-01-03 05:02:00,21.4,21.4,29.44,WNW,283,0.0,0.0,100,0.00,,,0.00,VWS V13.01,2013-01-03 11:02:00,
2013-01-03 05:05:00,21.2,21.2,29.44,WNW,283,0.0,0.0,100,0.00,,,0.00,VWS V13.01,2013-01-03 11:05:00,
2013-01-03 05:06:00,21.2,21.2,29.44,WNW,283,0.0,0.0,100,0.00,,,0.00,VWS V13.01,2013-01-03 11:06:00,
2013-01-03 05:07:00,21.2,21.2,29.44,WNW,283,0.0,0.0,100,0.00,,,0.00,VWS V13.01,2013-01-03 11:07:00,
2013-01-03 05:10:00,21.2,21.2,29.44,WNW,283,0.0,0.0,100,0.00,,,0.00,VWS V13.01,2013-01-03 11:10:00,
2013-01-03 05:11:00,21.2,21.2,29.44,WNW,283,0.0,0.0,100,0.00,,,0.00,VWS V13.01,2013-01-03 11:11:00,
2013-01-03 05:12:00,21.2,21.2,29.44,WNW,283,0.0,0.0,100,0.00,,,0.00,VWS V13.01,2013-01-03 11:12:00,
2013-01-03 05:15:00,21.0,21.0,29.44,WNW,283,0.0,0.0,100,0.00,,,0.00,VWS V13.01,2013-01-03 11:15:00,
2013-01-03 05:16:00,21.2,21.2,29.44,WNW,283,0.0,0.0,100,0.00,,,0.00,VWS V13.01,2013-01-03 11:16:00,
2013-01-03 05:17:00,21.4,21.4,29.44,WNW,283,0.0,0.0,100,0.00,,,0.00,VWS V13.01,2013-01-03 11:17:00,
2013-01-03 05:20:00,21.7,21.7,29.44,WNW,283,0.0,0.0,100,0.00,,,0.00,VWS V13.01,2013-01-03 11:20:00,
2013-01-03 05:21:00,22.1,22.1,29.44,WNW,283,0.0,0.0,100,0.00,,,0.00,VWS V13.01,2013-01-03 11:21:00,
2013-01-03 05:22:00,22.1,22.1,29.44,WNW,283,0.0,0.0,100,0.00,,,0.00,VWS V13.01,2013-01-03 11:22:00,
2013-01-03 05:25:00,21.9,21.9,29.44,WNW,283,0.0,0.0,100,0.00,,,0.00,VWS V13.01,2013-01-03 11:25:00,
2013-01-03 05:26:00,21.9,21.9,29.44,WNW,283,0.0,0.0,100,0.00,,,0.00,VWS V13.01,2013-01-03 11:26:00,
2013-01-03 05:27:00,21.9,21.9,29.47,WNW,283,0.0,0.0,100,0.00,,,0.00,VWS V13.01,2013-01-03 11:27:00,
2013-01-03 05:30:00,21.7,21.7,29.47,WNW,283,0.0,0.0,100,0.00,,,0.00,VWS V13.01,2013-01-03 11:30:00,
2013-01-03 05:31:00,21.7,21.7,29.47,WNW,283,0.0,0.0,100,0.00,,,0.00,VWS V13.01,2013-01-03 11:31:00,
2013-01-03 05:32:00,21.6,21.6,29.47,WNW,283,0.0,0.0,100,0.00,,,0.00,VWS V13.01,2013-01-03 11:32:00,
2013-01-03 05:35:00,21.7,21.7,29.47,WNW,283,0.0,0.0,100,0.00,,,0.00,VWS V13.01,2013-01-03 11:35:00,
2013-01-03 05:36:00,21.7,21.7,29.47,WNW,283,0.0,0.0,100,0.00,,,0.00,VWS V13.01,2013-01-03 11:36:00,
2013-01-03 05:37:00,21.7,21.7,29.47,WNW,283,0.0,0.0,100,0.00,,,0.00,VWS V13.01,2013-01-03 11:37:00,
2013-01-03 05:40:00,21.9,21.9,29.47,WNW,283,0.0,0.0,100,0.00,,,0.00,VWS V13.01,2013-01-03 11:40:00,
2013-01-03 05:41:00,21.7,21.7,29.47,WNW,283,0.0,0.0,100,0.00,,,0.00,VWS V13.01,2013-01-03 11:41:00,
2013-01-03 05:42:00,21.7,21.7,29.44,WNW,283,0.0,0.0,100,0.00,,,0.00,VWS V13.01,2013-01-03 11:42:00,
2013-01-03 05:45:00,21.7,21.7,29.44,WNW,283,0.0,0.0,100,0.00,,,0.00,VWS V13.01,2013-01-03 11:45:00,
2013-01-03 05:46:00,21.7,21.7,29.44,WNW,283,0.0,0.0,100,0.00,,,0.00,VWS V13.01,2013-01-03 11:46:00,
2013-01-03 05:47:00,21.7,21.7,29.44,WNW,283,0.0,0.0,100,0.00,,,0.00,VWS V13.01,2013-01-03 11:47:00,
2013-01-03 05:50:00,21.7,21.7,29.44,WNW,283,0.0,0.0,100,0.00,,,0.00,VWS V13.01,2013-01-03 11:50:00,
2013-01-03 05:51:00,21.6,21.6,29.44,WNW,283,0.0,0.0,100,0.00,,,0.00,VWS V13.01,2013-01-03 11:51:00,
2013-01-03 05:52:00,21.7,21.7,29.44,WNW,283,0.0,0.0,100,0.00,,,0.00,VWS V13.01,2013-01-03 11:52:00,
2013-01-03 05:55:00,21.6,21.6,29.44,WNW,283,0.0,0.0,100,0.00,,,0.00,VWS V13.01,2013-01-03 11:55:00,
2013-01-03 05:56:00,21.6,21.6,29.44,WNW,283,0.0,0.0,100,0.00,,,0.00,VWS V13.01,2013-01-03 11:56:00,
2013-01-03 05:57:00,21.7,21.7,29.47,WNW,283,0.0,0.0,100,0.00,,,0.00,VWS V13.01,2013-01-03 11:57:00,
2013-01-03 06:00:00,21.9,21.9,29.47,WNW,283,0.0,0.0,100,0.00,,,0.00,VWS V13.01,2013-01-03 12:00:00,
2013-01-03 06:01:00,21.9,21.9,29.47,WNW,283,0.0,0.0,100,0.00,,,0.00,VWS V13.01,2013-01-03 12:01:00,
2013-01-03 06:02:00,21.9,21.9,29.47,WNW,283,0.0,0.0,100,0.00,,,0.00,VWS V13.01,2013-01-03 12:02:00,
2013-01-03 06:05:00,21.9,21.9,29.47,WNW,283,0.0,0.0,100,0.00,,,0.00,VWS V13.01,2013-01-03 12:05:00,
2013-01-03 06:06:00,21.9,21.9,29.47,WNW,283,0.0,0.0,100,0.00,,,0.00,VWS V13.01,2013-01-03 12:06:00,
2013-01-03 06:07:00,21.9,21.9,29.47,WNW,283,0.0,0.0,100,0.00,,,0.00,VWS V13.01,2013-01-03 12:07:00,
2013-01-03 06:10:00,21.9,21.9,29.47,WNW,283,0.0,0.0,100,0.00,,,0.00,VWS V13.01,2013-01-03 12:10:00,
2013-01-03 06:11:00,21.7,21.7,29.47,WNW,283,0.0,0.0,100,0.00,,,0.00,VWS V13.01,2013-01-03 12:11:00,
2013-01-03 06:12:00,21.7,21.7,29.47,WNW,283,0.0,0.0,100,0.00,,,0.00,VWS V13.01,2013-01-03 12:12:00,
2013-01-03 06:15:00,21.7,21.7,29.47,WNW,283,0.0,0.0,100,0.00,,,0.00,VWS V13.01,2013-01-03 12:15:00,
2013-01-03 06:16:00,21.9,21.9,29.47,WNW,283,0.0,0.0,100,0.00,,,0.00,VWS V13.01,2013-01-03 12:16:00,
2013-01-03 06:17:00,21.9,21.9,29.47,WNW,283,0.0,0.0,100,0.00,,,0.00,VWS V13.01,2013-01-03 12:17:00,
2013-01-03 06:20:00,21.9,21.9,29.47,WNW,283,0.0,0.0,100,0.00,,,0.00,VWS V13.01,2013-01-03 12:20:00,
2013-01-03 06:21:00,22.1,22.1,29.47,WNW,283,0.0,0.0,100,0.00,,,0.00,VWS V13.01,2013-01-03 12:21:00,
2013-01-03 06:23:00,22.1,22.1,29.47,WNW,283,0.0,0.0,100,0.00,,,0.00,VWS V13.01,2013-01-03 12:23:00,
2013-01-03 06:25:00,22.5,22.5,29.47,WNW,283,0.0,0.0,100,0.00,,,0.00,VWS V13.01,2013-01-03 12:25:00,
2013-01-03 06:26:00,22.5,22.5,29.47,WNW,283,0.0,0.0,100,0.00,,,0.00,VWS V13.01,2013-01-03 12:26:00,
2013-01-03 06:28:00,22.6,22.6,29.47,WNW,283,0.0,0.0,100,0.00,,,0.00,VWS V13.01,2013-01-03 12:28:00,
2013-01-03 06:30:00,22.8,22.8,29.47,WNW,283,0.0,0.0,100,0.00,,,0.00,VWS V13.01,2013-01-03 12:30:00,
2013-01-03 06:31:00,22.8,22.8,29.47,WNW,283,0.0,0.0,100,0.00,,,0.00,VWS V13.01,2013-01-03 12:31:00,
2013-01-03 06:33:00,23.0,23.0,29.47,WNW,283,0.0,0.0,100,0.00,,,0.00,VWS V13.01,2013-01-03 12:33:00,
2013-01-03 06:35:00,23.2,23.2,29.47,WNW,283,0.0,0.0,100,0.00,,,0.00,VWS V13.01,2013-01-03 12:35:00,
2013-01-03 06:36:00,23.2,23.2,29.47,WNW,283,0.0,0.0,100,0.00,,,0.00,VWS V13.01,2013-01-03 12:36:00,
2013-01-03 06:38:00,23.4,23.4,29.47,WNW,283,0.0,0.0,100,0.00,,,0.00,VWS V13.01,2013-01-03 12:38:00,
2013-01-03 06:40:00,23.5,23.5,29.47,WNW,283,0.0,0.0,100,0.00,,,0.00,VWS V13.01,2013-01-03 12:40:00,
2013-01-03 06:41:00,23.5,23.5,29.47,WNW,283,0.0,0.0,100,0.00,,,0.00,VWS V13.01,2013-01-03 12:41:00,
2013-01-03 06:43:00,23.7,23.7,29.47,WNW,283,0.0,0.0,100,0.00,,,0.00,VWS V13.01,2013-01-03 12:43:00,
2013-01-03 06:45:00,23.7,23.7,29.47,WNW,283,0.0,0.0,100,0.00,,,0.00,VWS V13.01,2013-01-03 12:45:00,
2013-01-03 06:46:00,23.9,23.9,29.47,WNW,283,0.0,0.0,100,0.00,,,0.00,VWS V13.01,2013-01-03 12:46:00,
2013-01-03 06:48:00,24.1,24.1,29.47,WNW,283,0.0,0.0,100,0.00,,,0.00,VWS V13.01,2013-01-03 12:48:00,
2013-01-03 06:50:00,24.1,24.1,29.47,WNW,283,0.0,0.0,100,0.00,,,0.00,VWS V13.01,2013-01-03 12:50:00,
2013-01-03 06:51:00,24.3,24.3,29.47,WNW,283,0.0,0.0,100,0.00,,,0.00,VWS V13.01,2013-01-03 12:51:00,
2013-01-03 06:52:00,24.3,24.3,29.47,WNW,283,0.0,0.0,100,0.00,,,0.00,VWS V13.01,2013-01-03 12:52:00,
2013-01-03 06:53:00,24.3,24.3,29.47,WNW,283,0.0,0.0,100,0.00,,,0.00,VWS V13.01,2013-01-03 12:53:00,
2013-01-03 06:55:00,24.4,24.4,29.47,WNW,283,0.0,0.0,100,0.00,,,0.00,VWS V13.01,2013-01-03 12:55:00,
2013-01-03 06:56:00,24.4,24.4,29.47,WNW,283,0.0,0.0,100,0.00,,,0.00,VWS V13.01,2013-01-03 12:56:00,
2013-01-03 06:57:00,24.4,24.4,29.47,WNW,283,0.0,0.0,100,0.00,,,0.00,VWS V13.01,2013-01-03 12:57:00,
2013-01-03 06:58:00,24.4,24.4,29.47,WNW,283,0.0,0.0,100,0.00,,,0.00,VWS V13.01,2013-01-03 12:58:00,
2013-01-03 07:01:00,24.6,24.6,29.47,WNW,283,0.0,0.0,100,0.00,,,0.00,VWS V13.01,2013-01-03 13:01:00,
2013-01-03 07:02:00,24.6,24.6,29.47,WNW,283,0.0,0.0,100,0.00,,,0.00,VWS V13.01,2013-01-03 13:02:00,
2013-01-03 07:03:00,24.6,24.6,29.47,WNW,283,0.0,0.0,100,0.00,,,0.00,VWS V13.01,2013-01-03 13:03:00,
2013-01-03 07:06:00,24.6,24.6,29.47,WNW,283,0.0,0.0,100,0.00,,,0.00,VWS V13.01,2013-01-03 13:06:00,
2013-01-03 07:07:00,24.6,24.6,29.47,WNW,283,0.0,0.0,100,0.00,,,0.00,VWS V13.01,2013-01-03 13:07:00,
2013-01-03 07:08:00,24.6,24.6,29.47,WNW,283,0.0,0.0,100,0.00,,,0.00,VWS V13.01,2013-01-03 13:08:00,
2013-01-03 07:11:00,24.6,24.6,29.47,WNW,283,0.0,0.0,100,0.00,,,0.00,VWS V13.01,2013-01-03 13:11:00,
2013-01-03 07:12:00,24.6,24.6,29.47,WNW,283,0.0,0.0,100,0.00,,,0.00,VWS V13.01,2013-01-03 13:12:00,
2013-01-03 07:13:00,24.6,24.6,29.47,South,190,0.0,0.0,100,0.00,,,0.00,VWS V13.01,2013-01-03 13:13:00,
2013-01-03 07:16:00,24.8,24.8,29.47,South,190,3.6,3.6,100,0.00,,,0.00,VWS V13.01,2013-01-03 13:16:00,
2013-01-03 07:17:00,24.8,24.8,29.47,South,190,2.7,2.7,100,0.00,,,0.00,VWS V13.01,2013-01-03 13:17:00,
2013-01-03 07:18:00,24.8,24.8,29.47,South,186,2.7,2.7,100,0.00,,,0.00,VWS V13.01,2013-01-03 13:18:00,
2013-01-03 07:21:00,24.6,24.6,29.47,South,185,4.0,4.0,100,0.00,,,0.00,VWS V13.01,2013-01-03 13:21:00,
2013-01-03 07:22:00,24.4,24.4,29.47,South,172,4.0,4.0,100,0.00,,,0.00,VWS V13.01,2013-01-03 13:22:00,
2013-01-03 07:23:00,24.4,24.4,29.47,South,188,5.4,5.4,100,0.00,,,0.00,VWS V13.01,2013-01-03 13:23:00,
2013-01-03 07:26:00,24.4,24.4,29.47,South,189,4.0,4.0,100,0.00,,,0.00,VWS V13.01,2013-01-03 13:26:00,
2013-01-03 07:27:00,24.4,24.4,29.50,SSW,211,0.0,0.0,100,0.00,,,0.00,VWS V13.01,2013-01-03 13:27:00,
2013-01-03 07:28:00,24.6,24.6,29.50,SSW,193,4.9,4.9,100,0.00,,,0.00,VWS V13.01,2013-01-03 13:28:00,
2013-01-03 07:31:00,24.8,24.8,29.50,South,176,4.0,4.0,100,0.00,,,0.00,VWS V13.01,2013-01-03 13:31:00,
2013-01-03 07:32:00,24.8,24.8,29.50,South,191,0.0,0.0,100,0.00,,,0.00,VWS V13.01,2013-01-03 13:32:00,
2013-01-03 07:33:00,24.6,24.6,29.50,SSW,192,0.0,0.0,100,0.00,,,0.00,VWS V13.01,2013-01-03 13:33:00,
2013-01-03 07:36:00,24.8,24.8,29.50,South,191,4.0,4.0,100,0.00,,,0.00,VWS V13.01,2013-01-03 13:36:00,
2013-01-03 07:37:00,24.8,24.8,29.50,South,190,4.0,4.0,100,0.00,,,0.00,VWS V13.01,2013-01-03 13:37:00,
2013-01-03 07:38:00,24.8,24.8,29.50,South,189,0.0,0.0,100,0.00,,,0.00,VWS V13.01,2013-01-03 13:38:00,
2013-01-03 07:41:00,25.0,25.0,29.50,South,189,0.0,0.0,100,0.00,,,0.00,VWS V13.01,2013-01-03 13:41:00,
2013-01-03 07:42:00,25.0,25.0,29.50,South,189,0.0,0.0,100,0.00,,,0.00,VWS V13.01,2013-01-03 13:42:00,
2013-01-03 07:43:00,25.0,25.0,29.50,South,189,0.0,0.0,100,0.00,,,0.00,VWS V13.01,2013-01-03 13:43:00,
2013-01-03 07:46:00,25.0,25.0,29.50,South,187,0.0,0.0,100,0.00,,,0.00,VWS V13.01,2013-01-03 13:46:00,
2013-01-03 07:47:00,25.0,25.0,29.50,South,187,0.0,0.0,100,0.00,,,0.00,VWS V13.01,2013-01-03 13:47:00,
2013-01-03 07:48:00,25.2,25.2,29.50,SSW,209,0.0,0.0,100,0.00,,,0.00,VWS V13.01,2013-01-03 13:48:00,
2013-01-03 07:51:00,25.2,25.2,29.50,SSW,196,0.0,0.0,100,0.00,,,0.00,VWS V13.01,2013-01-03 13:51:00,
2013-01-03 07:52:00,25.2,25.2,29.50,SSW,198,0.0,0.0,100,0.00,,,0.00,VWS V13.01,2013-01-03 13:52:00,
2013-01-03 07:53:00,25.2,25.2,29.50,SSW,198,0.0,0.0,100,0.00,,,0.00,VWS V13.01,2013-01-03 13:53:00,
2013-01-03 07:56:00,25.2,25.2,29.50,SSW,206,0.0,0.0,100,0.00,,,0.00,VWS V13.01,2013-01-03 13:56:00,
2013-01-03 07:57:00,25.3,25.3,29.50,South,186,0.0,0.0,100,0.00,,,0.00,VWS V13.01,2013-01-03 13:57:00,
2013-01-03 07:58:00,25.3,25.3,29.50,WSW,255,0.0,0.0,100,0.00,,,0.00,VWS V13.01,2013-01-03 13:58:00,
2013-01-03 08:01:00,25.5,25.5,29.50,SW,229,0.0,0.0,100,0.00,,,0.00,VWS V13.01,2013-01-03 14:01:00,
2013-01-03 08:02:00,25.7,25.7,29.50,SSW,213,0.0,0.0,100,0.00,,,0.00,VWS V13.01,2013-01-03 14:02:00,
2013-01-03 08:03:00,25.7,25.7,29.50,SW,221,0.0,0.0,100,0.00,,,0.00,VWS V13.01,2013-01-03 14:03:00,
2013-01-03 08:07:00,25.9,25.9,29.50,SW,221,0.0,0.0,100,0.00,,,0.00,VWS V13.01,2013-01-03 14:07:00,
2013-01-03 08:08:00,25.9,25.9,29.50,SW,221,0.0,0.0,100,0.00,,,0.00,VWS V13.01,2013-01-03 14:08:00,
2013-01-03 08:11:00,26.1,26.1,29.50,SW,231,0.0,0.0,100,0.00,,,0.00,VWS V13.01,2013-01-03 14:11:00,
2013-01-03 08:12:00,26.1,26.1,29.50,SW,231,0.0,0.0,100,0.00,,,0.00,VWS V13.01,2013-01-03 14:12:00,
2013-01-03 08:13:00,25.9,25.9,29.50,SW,231,0.0,0.0,100,0.00,,,0.00,VWS V13.01,2013-01-03 14:13:00,
2013-01-03 08:17:00,26.1,26.1,29.50,SW,231,0.0,0.0,100,0.00,,,0.00,VWS V13.01,2013-01-03 14:17:00,
2013-01-03 08:18:00,26.1,26.1,29.50,SSW,202,0.0,0.0,100,0.00,,,0.00,VWS V13.01,2013-01-03 14:18:00,
2013-01-03 08:19:00,26.1,26.1,29.50,SSW,202,0.0,0.0,100,0.00,,,0.00,VWS V13.01,2013-01-03 14:19:00,
2013-01-03 08:22:00,26.2,26.2,29.50,SW,214,0.0,0.0,100,0.00,,,0.00,VWS V13.01,2013-01-03 14:22:00,
2013-01-03 08:23:00,26.2,26.2,29.50,SW,220,0.0,0.0,100,0.00,,,0.00,VWS V13.01,2013-01-03 14:23:00,
2013-01-03 08:24:00,26.2,26.2,29.50,SW,220,0.0,0.0,100,0.00,,,0.00,VWS V13.01,2013-01-03 14:24:00,
2013-01-03 08:27:00,26.2,26.2,29.50,SW,220,0.0,0.0,100,0.00,,,0.00,VWS V13.01,2013-01-03 14:27:00,
2013-01-03 08:28:00,26.2,26.2,29.50,SW,220,0.0,0.0,100,0.00,,,0.00,VWS V13.01,2013-01-03 14:28:00,
2013-01-03 08:29:00,26.4,26.4,29.50,SW,221,0.0,0.0,100,0.00,,,0.00,VWS V13.01,2013-01-03 14:29:00,
2013-01-03 08:32:00,26.4,26.4,29.50,SW,222,0.0,0.0,100,0.00,,,0.00,VWS V13.01,2013-01-03 14:32:00,
2013-01-03 08:33:00,26.6,26.6,29.50,SW,223,0.0,0.0,100,0.00,,,0.00,VWS V13.01,2013-01-03 14:33:00,
2013-01-03 08:34:00,26.6,26.6,29.50,SW,224,0.0,0.0,100,0.00,,,0.00,VWS V13.01,2013-01-03 14:34:00,
2013-01-03 08:37:00,26.6,26.6,29.50,SW,224,0.0,0.0,100,0.00,,,0.00,VWS V13.01,2013-01-03 14:37:00,
2013-01-03 08:38:00,26.6,26.6,29.50,SW,224,0.0,0.0,100,0.00,,,0.00,VWS V13.01,2013-01-03 14:38:00,
2013-01-03 08:39:00,26.6,26.6,29.50,West,268,0.0,0.0,100,0.00,,,0.00,VWS V13.01,2013-01-03 14:39:00,
2013-01-03 08:42:00,26.1,26.1,29.50,WSW,256,0.0,0.0,100,0.00,,,0.00,VWS V13.01,2013-01-03 14:42:00,
2013-01-03 08:43:00,26.1,26.1,29.53,WSW,258,0.0,0.0,100,0.00,,,0.00,VWS V13.01,2013-01-03 14:43:00,
2013-01-03 08:44:00,26.1,26.1,29.53,West,259,0.0,0.0,100,0.00,,,0.00,VWS V13.01,2013-01-03 14:44:00,
2013-01-03 08:47:00,25.7,25.7,29.53,West,259,0.0,0.0,100,0.00,,,0.00,VWS V13.01,2013-01-03 14:47:00,
2013-01-03 08:48:00,25.5,25.5,29.53,West,259,0.0,0.0,100,0.00,,,0.00,VWS V13.01,2013-01-03 14:48:00,
2013-01-03 08:49:00,25.5,25.5,29.53,West,259,0.0,0.0,100,0.00,,,0.00,VWS V13.01,2013-01-03 14:49:00,
2013-01-03 08:52:00,26.2,26.2,29.53,West,259,0.0,0.0,100,0.00,,,0.00,VWS V13.01,2013-01-03 14:52:00,
2013-01-03 08:53:00,26.6,26.6,29.53,West,259,0.0,0.0,100,0.00,,,0.00,VWS V13.01,2013-01-03 14:53:00,
2013-01-03 08:54:00,27.0,27.0,29.53,West,259,0.0,0.0,100,0.00,,,0.00,VWS V13.01,2013-01-03 14:54:00,
2013-01-03 08:57:00,27.5,27.5,29.53,West,259,0.0,0.0,100,0.00,,,0.00,VWS V13.01,2013-01-03 14:57:00,
2013-01-03 08:58:00,27.7,27.7,29.53,West,259,0.0,0.0,100,0.00,,,0.00,VWS V13.01,2013-01-03 14:58:00,
2013-01-03 08:59:00,28.0,28.0,29.53,West,259,0.0,0.0,100,0.00,,,0.00,VWS V13.01,2013-01-03 14:59:00,
2013-01-03 09:02:00,28.6,27.8,29.53,West,259,0.0,0.0,97,0.00,,,0.00,VWS V13.01,2013-01-03 15:02:00,
2013-01-03 09:03:00,28.6,27.8,29.53,West,259,0.0,0.0,97,0.00,,,0.00,VWS V13.01,2013-01-03 15:03:00,
2013-01-03 09:04:00,28.9,25.0,29.53,West,259,0.0,0.0,85,0.00,,,0.00,VWS V13.01,2013-01-03 15:04:00,
2013-01-03 09:07:00,29.3,25.4,29.53,West,274,0.0,0.0,85,0.00,,,0.00,VWS V13.01,2013-01-03 15:07:00,
2013-01-03 09:08:00,29.5,25.5,29.53,West,274,0.0,0.0,85,0.00,,,0.00,VWS V13.01,2013-01-03 15:08:00,
2013-01-03 09:09:00,28.6,24.6,29.53,West,270,2.7,2.7,85,0.00,,,0.00,VWS V13.01,2013-01-03 15:09:00,
2013-01-03 09:12:00,28.8,24.8,29.53,West,281,2.7,2.7,85,0.00,,,0.00,VWS V13.01,2013-01-03 15:12:00,
2013-01-03 09:13:00,28.9,25.0,29.53,West,281,0.0,0.0,85,0.00,,,0.00,VWS V13.01,2013-01-03 15:13:00,
2013-01-03 09:14:00,28.8,24.8,29.53,WNW,286,2.2,2.2,85,0.00,,,0.00,VWS V13.01,2013-01-03 15:14:00,
2013-01-03 09:17:00,28.8,24.8,29.53,WSW,256,4.0,4.0,85,0.00,,,0.00,VWS V13.01,2013-01-03 15:17:00,
2013-01-03 09:18:00,28.8,24.8,29.53,West,278,3.6,3.6,85,0.00,,,0.00,VWS V13.01,2013-01-03 15:18:00,
2013-01-03 09:19:00,28.6,24.6,29.53,West,267,0.0,0.0,85,0.00,,,0.00,VWS V13.01,2013-01-03 15:19:00,
2013-01-03 09:22:00,28.4,24.5,29.53,West,267,0.0,0.0,85,0.00,,,0.00,VWS V13.01,2013-01-03 15:22:00,
2013-01-03 09:23:00,28.4,24.5,29.53,West,267,0.0,0.0,85,0.00,,,0.00,VWS V13.01,2013-01-03 15:23:00,
2013-01-03 09:24:00,28.4,24.5,29.53,West,280,4.9,4.9,85,0.00,,,0.00,VWS V13.01,2013-01-03 15:24:00,
2013-01-03 09:27:00,28.6,24.6,29.56,WNW,284,8.1,8.1,85,0.00,,,0.00,VWS V13.01,2013-01-03 15:27:00,
2013-01-03 09:28:00,28.4,24.5,29.56,West,259,3.6,3.6,85,0.00,,,0.00,VWS V13.01,2013-01-03 15:28:00,
2013-01-03 09:30:00,28.6,24.6,29.56,West,275,3.6,3.6,85,0.00,,,0.00,VWS V13.01,2013-01-03 15:30:00,
2013-01-03 09:32:00,28.8,24.8,29.56,West,263,2.7,2.7,85,0.00,,,0.00,VWS V13.01,2013-01-03 15:32:00,
2013-01-03 09:33:00,28.9,25.0,29.56,West,266,0.0,0.0,85,0.00,,,0.00,VWS V13.01,2013-01-03 15:33:00,
2013-01-03 09:34:00,28.8,24.8,29.56,WSW,258,5.4,5.4,85,0.00,,,0.00,VWS V13.01,2013-01-03 15:34:00,
2013-01-03 09:35:00,29.1,25.2,29.56,WNW,299,0.0,0.0,85,0.00,,,0.00,VWS V13.01,2013-01-03 15:35:00,
2013-01-03 09:37:00,28.4,24.5,29.56,WNW,296,0.0,0.0,85,0.00,,,0.00,VWS V13.01,2013-01-03 15:37:00,
2013-01-03 09:38:00,28.6,24.6,29.56,West,281,0.0,0.0,85,0.00,,,0.00,VWS V13.01,2013-01-03 15:38:00,
2013-01-03 09:39:00,28.8,24.8,29.56,WNW,284,0.0,0.0,85,0.00,,,0.00,VWS V13.01,2013-01-03 15:39:00,
2013-01-03 09:40:00,28.6,24.6,29.56,WNW,287,5.8,5.8,85,0.00,,,0.00,VWS V13.01,2013-01-03 15:40:00,
2013-01-03 09:42:00,28.9,25.0,29.53,WNW,288,3.6,3.6,85,0.00,,,0.00,VWS V13.01,2013-01-03 15:42:00,
2013-01-03 09:43:00,28.8,24.8,29.53,WNW,290,3.1,3.1,85,0.00,,,0.00,VWS V13.01,2013-01-03 15:43:00,
2013-01-03 09:44:00,28.8,24.8,29.53,West,281,4.0,4.0,85,0.00,,,0.00,VWS V13.01,2013-01-03 15:44:00,
2013-01-03 09:45:00,29.1,25.2,29.53,WNW,291,2.7,2.7,85,0.00,,,0.00,VWS V13.01,2013-01-03 15:45:00,
2013-01-03 09:47:00,29.7,25.7,29.53,WNW,290,0.0,0.0,85,0.00,,,0.00,VWS V13.01,2013-01-03 15:47:00,
2013-01-03 09:48:00,30.2,26.2,29.53,WNW,303,0.0,0.0,85,0.00,,,0.00,VWS V13.01,2013-01-03 15:48:00,
2013-01-03 09:49:00,29.8,25.9,29.53,WNW,288,3.1,3.1,85,0.00,,,0.00,VWS V13.01,2013-01-03 15:49:00,
2013-01-03 09:50:00,29.8,25.9,29.53,WNW,298,4.0,4.0,85,0.00,,,0.00,VWS V13.01,2013-01-03 15:50:00,
2013-01-03 09:52:00,29.8,25.9,29.53,West,267,2.2,2.2,85,0.00,,,0.00,VWS V13.01,2013-01-03 15:52:00,
2013-01-03 09:53:00,29.7,25.7,29.53,NW,308,4.9,4.9,85,0.00,,,0.00,VWS V13.01,2013-01-03 15:53:00,
2013-01-03 09:54:00,29.7,25.7,29.53,WNW,287,6.3,6.3,85,0.00,,,0.00,VWS V13.01,2013-01-03 15:54:00,
2013-01-03 09:55:00,29.5,25.5,29.53,West,260,4.0,4.0,85,0.00,,,0.00,VWS V13.01,2013-01-03 15:55:00,
2013-01-03 09:57:00,29.7,25.7,29.56,West,261,3.1,3.1,85,0.00,,,0.00,VWS V13.01,2013-01-03 15:57:00,
2013-01-03 09:58:00,29.8,25.9,29.56,WNW,282,2.2,2.2,85,0.00,,,0.00,VWS V13.01,2013-01-03 15:58:00,
2013-01-03 09:59:00,29.8,25.9,29.56,West,274,5.4,5.4,85,0.00,,,0.00,VWS V13.01,2013-01-03 15:59:00,
2013-01-03 10:00:00,29.7,25.7,29.56,West,272,3.6,3.6,85,0.00,,,0.00,VWS V13.01,2013-01-03 16:00:00,
2013-01-03 10:02:00,30.0,26.1,29.56,West,270,0.0,0.0,85,0.00,,,0.00,VWS V13.01,2013-01-03 16:02:00,
2013-01-03 10:03:00,30.2,26.2,29.56,WNW,283,0.0,0.0,85,0.00,,,0.00,VWS V13.01,2013-01-03 16:03:00,
2013-01-03 10:04:00,30.4,26.4,29.56,West,276,0.0,0.0,85,0.00,,,0.00,VWS V13.01,2013-01-03 16:04:00,
2013-01-03 10:05:00,30.6,26.6,29.56,West,265,0.0,0.0,85,0.00,,,0.00,VWS V13.01,2013-01-03 16:05:00,
2013-01-03 10:07:00,30.7,26.8,29.56,WNW,283,0.0,0.0,85,0.00,,,0.00,VWS V13.01,2013-01-03 16:07:00,
2013-01-03 10:08:00,30.7,26.8,29.56,WNW,287,3.1,3.1,85,0.00,,,0.00,VWS V13.01,2013-01-03 16:08:00,
2013-01-03 10:09:00,30.7,26.8,29.56,WNW,295,0.0,0.0,85,0.00,,,0.00,VWS V13.01,2013-01-03 16:09:00,
2013-01-03 10:10:00,30.9,27.0,29.56,West,275,0.0,0.0,85,0.00,,,0.00,VWS V13.01,2013-01-03 16:10:00,
2013-01-03 10:12:00,30.9,27.0,29.56,West,279,0.0,0.0,85,0.00,,,0.00,VWS V13.01,2013-01-03 16:12:00,
2013-01-03 10:13:00,31.1,27.1,29.56,West,278,0.0,0.0,85,0.00,,,0.00,VWS V13.01,2013-01-03 16:13:00,
2013-01-03 10:14:00,30.9,27.0,29.56,West,275,4.5,4.5,85,0.00,,,0.00,VWS V13.01,2013-01-03 16:14:00,
2013-01-03 10:15:00,31.1,27.1,29.56,West,271,2.2,2.2,85,0.00,,,0.00,VWS V13.01,2013-01-03 16:15:00,
2013-01-03 10:17:00,31.3,27.3,29.56,West,279,2.2,2.2,85,0.00,,,0.00,VWS V13.01,2013-01-03 16:17:00,
2013-01-03 10:18:00,31.3,27.3,29.56,West,277,3.6,3.6,85,0.00,,,0.00,VWS V13.01,2013-01-03 16:18:00,
2013-01-03 10:19:00,31.5,27.5,29.56,West,276,2.2,2.2,85,0.00,,,0.00,VWS V13.01,2013-01-03 16:19:00,
2013-01-03 10:20:00,31.5,27.5,29.56,West,261,0.0,0.0,85,0.00,,,0.00,VWS V13.01,2013-01-03 16:20:00,
2013-01-03 10:22:00,31.6,27.7,29.56,WNW,295,0.0,0.0,85,0.00,,,0.00,VWS V13.01,2013-01-03 16:22:00,
2013-01-03 10:23:00,31.5,27.5,29.56,WNW,284,3.1,3.1,85,0.00,,,0.00,VWS V13.01,2013-01-03 16:23:00,
2013-01-03 10:24:00,31.6,27.7,29.56,WNW,283,3.6,3.6,85,0.00,,,0.00,VWS V13.01,2013-01-03 16:24:00,
2013-01-03 10:25:00,31.8,27.8,29.56,WNW,282,0.0,0.0,85,0.00,,,0.00,VWS V13.01,2013-01-03 16:25:00,
2013-01-03 10:27:00,32.0,28.0,29.59,WNW,302,2.7,2.7,85,0.00,,,0.00,VWS V13.01,2013-01-03 16:27:00,
2013-01-03 10:28:00,32.2,28.2,29.59,WNW,289,0.0,0.0,85,0.00,,,0.00,VWS V13.01,2013-01-03 16:28:00,
2013-01-03 10:29:00,32.2,28.2,29.59,NW,312,5.4,5.4,85,0.00,,,0.00,VWS V13.01,2013-01-03 16:29:00,
2013-01-03 10:30:00,32.2,28.2,29.59,NW,308,4.9,4.9,85,0.00,,,0.00,VWS V13.01,2013-01-03 16:30:00,
2013-01-03 10:33:00,32.0,28.0,29.59,West,277,3.6,3.6,85,0.00,,,0.00,VWS V13.01,2013-01-03 16:33:00,
2013-01-03 10:34:00,32.2,28.2,29.59,West,277,0.0,0.0,85,0.00,,,0.00,VWS V13.01,2013-01-03 16:34:00,
2013-01-03 10:35:00,32.4,28.4,29.59,West,271,2.2,2.2,85,0.00,,,0.00,VWS V13.01,2013-01-03 16:35:00,
2013-01-03 10:38:00,33.1,29.1,29.59,West,276,4.0,4.0,85,0.00,,,0.00,VWS V13.01,2013-01-03 16:38:00,
2013-01-03 10:39:00,33.4,29.4,29.59,WNW,291,3.6,3.6,85,0.00,,,0.00,VWS V13.01,2013-01-03 16:39:00,
2013-01-03 10:40:00,33.4,29.4,29.59,WNW,296,0.0,0.0,85,0.00,,,0.00,VWS V13.01,2013-01-03 16:40:00,
2013-01-03 10:43:00,33.8,33.0,29.56,WNW,302,3.6,3.6,97,0.00,,,0.00,VWS V13.01,2013-01-03 16:43:00,
2013-01-03 10:44:00,34.3,33.6,29.56,West,266,0.0,0.0,97,0.00,,,0.00,VWS V13.01,2013-01-03 16:44:00,
2013-01-03 10:45:00,34.3,33.6,29.56,West,273,0.0,0.0,97,0.00,,,0.00,VWS V13.01,2013-01-03 16:45:00,
2013-01-03 10:48:00,35.2,34.5,29.56,NW,324,0.0,0.0,97,0.00,,,0.00,VWS V13.01,2013-01-03 16:48:00,
2013-01-03 10:49:00,34.9,34.1,29.56,West,270,3.1,3.1,97,0.00,,,0.00,VWS V13.01,2013-01-03 16:49:00,
2013-01-03 10:50:00,35.1,34.3,29.56,NNW,339,0.0,0.0,97,0.00,,,0.00,VWS V13.01,2013-01-03 16:50:00,
2013-01-03 10:53:00,35.2,34.5,29.56,WNW,292,4.0,4.0,97,0.00,,,0.00,VWS V13.01,2013-01-03 16:53:00,
2013-01-03 10:54:00,35.4,34.7,29.56,NW,324,3.1,3.1,97,0.00,,,0.00,VWS V13.01,2013-01-03 16:54:00,
2013-01-03 10:55:00,35.2,34.5,29.56,WNW,293,2.7,2.7,97,0.00,,,0.00,VWS V13.01,2013-01-03 16:55:00,
2013-01-03 10:58:00,35.8,33.4,29.59,West,278,5.8,5.8,91,0.00,,,0.00,VWS V13.01,2013-01-03 16:58:00,
2013-01-03 10:59:00,35.4,34.7,29.59,NW,319,2.7,2.7,97,0.00,,,0.00,VWS V13.01,2013-01-03 16:59:00,
2013-01-03 11:01:00,35.2,34.5,29.59,West,265,2.2,2.2,97,0.00,,,0.00,VWS V13.01,2013-01-03 17:01:00,
2013-01-03 11:03:00,35.2,34.5,29.59,NW,308,3.1,3.1,97,0.00,,,0.00,VWS V13.01,2013-01-03 17:03:00,
2013-01-03 11:04:00,35.4,34.7,29.59,West,274,0.0,0.0,97,0.00,,,0.00,VWS V13.01,2013-01-03 17:04:00,
2013-01-03 11:06:00,35.4,34.7,29.59,NW,310,4.0,4.0,97,0.00,,,0.00,VWS V13.01,2013-01-03 17:06:00,
2013-01-03 11:08:00,36.7,34.3,29.59,NNW,331,2.2,2.2,91,0.00,,,0.00,VWS V13.01,2013-01-03 17:08:00,
2013-01-03 11:09:00,36.5,34.1,29.59,WNW,290,0.0,0.0,91,0.00,,,0.00,VWS V13.01,2013-01-03 17:09:00,
2013-01-03 11:11:00,36.1,33.8,29.59,West,264,0.0,0.0,91,0.00,,,0.00,VWS V13.01,2013-01-03 17:11:00,
2013-01-03 11:13:00,36.3,34.0,29.56,NW,322,0.0,0.0,91,0.00,,,0.00,VWS V13.01,2013-01-03 17:13:00,
2013-01-03 11:14:00,36.5,34.1,29.56,NNW,346,0.0,0.0,91,0.00,,,0.00,VWS V13.01,2013-01-03 17:14:00,
2013-01-03 11:15:00,36.3,34.0,29.56,WNW,294,2.7,2.7,91,0.00,,,0.00,VWS V13.01,2013-01-03 17:15:00,
2013-01-03 11:16:00,36.7,34.3,29.56,NW,311,4.0,4.0,91,0.00,,,0.00,VWS V13.01,2013-01-03 17:16:00,
2013-01-03 11:18:00,36.1,33.8,29.56,NW,308,4.9,4.9,91,0.00,,,0.00,VWS V13.01,2013-01-03 17:18:00,
2013-01-03 11:19:00,36.7,34.3,29.56,NW,304,0.0,0.0,91,0.00,,,0.00,VWS V13.01,2013-01-03 17:19:00,
2013-01-03 11:20:00,36.9,34.5,29.56,NW,304,0.0,0.0,91,0.00,,,0.00,VWS V13.01,2013-01-03 17:20:00,
2013-01-03 11:21:00,36.9,34.5,29.56,NW,314,2.7,2.7,91,0.00,,,0.00,VWS V13.01,2013-01-03 17:21:00,
2013-01-03 11:23:00,36.9,34.5,29.56,NNW,343,2.7,2.7,91,0.00,,,0.00,VWS V13.01,2013-01-03 17:23:00,
2013-01-03 11:24:00,37.4,35.0,29.56,NNW,345,2.7,2.7,91,0.00,,,0.00,VWS V13.01,2013-01-03 17:24:00,
2013-01-03 11:25:00,37.4,35.0,29.56,NW,305,0.0,0.0,91,0.00,,,0.00,VWS V13.01,2013-01-03 17:25:00,
2013-01-03 11:26:00,37.6,35.2,29.56,NNW,329,3.1,3.1,91,0.00,,,0.00,VWS V13.01,2013-01-03 17:26:00,
2013-01-03 11:28:00,37.8,35.4,29.56,WNW,303,0.0,0.0,91,0.00,,,0.00,VWS V13.01,2013-01-03 17:28:00,
2013-01-03 11:29:00,37.8,35.4,29.56,WNW,303,0.0,0.0,91,0.00,,,0.00,VWS V13.01,2013-01-03 17:29:00,
2013-01-03 11:30:00,37.8,35.4,29.56,NW,322,2.7,2.7,91,0.00,,,0.00,VWS V13.01,2013-01-03 17:30:00,
2013-01-03 11:31:00,38.1,35.7,29.56,NW,314,4.0,4.0,91,0.00,,,0.00,VWS V13.01,2013-01-03 17:31:00,
2013-01-03 11:33:00,36.9,34.5,29.56,NW,309,4.0,4.0,91,0.00,,,0.00,VWS V13.01,2013-01-03 17:33:00,
2013-01-03 11:34:00,36.3,34.0,29.56,West,276,3.6,3.6,91,0.00,,,0.00,VWS V13.01,2013-01-03 17:34:00,
2013-01-03 11:35:00,36.9,34.5,29.56,WNW,289,0.0,0.0,91,0.00,,,0.00,VWS V13.01,2013-01-03 17:35:00,
2013-01-03 11:36:00,36.9,34.5,29.56,WNW,301,3.6,3.6,91,0.00,,,0.00,VWS V13.01,2013-01-03 17:36:00,
2013-01-03 11:38:00,37.6,35.2,29.56,WSW,239,0.0,0.0,91,0.00,,,0.00,VWS V13.01,2013-01-03 17:38:00,
2013-01-03 11:39:00,37.8,35.4,29.56,WNW,282,0.0,0.0,91,0.00,,,0.00,VWS V13.01,2013-01-03 17:39:00,
2013-01-03 11:40:00,37.6,35.2,29.56,WNW,287,5.4,5.4,91,0.00,,,0.00,VWS V13.01,2013-01-03 17:40:00,
2013-01-03 11:41:00,38.1,35.7,29.56,NW,315,3.6,3.6,91,0.00,,,0.00,VWS V13.01,2013-01-03 17:41:00,
2013-01-03 11:43:00,37.8,35.4,29.56,WNW,296,3.6,3.6,91,0.00,,,0.00,VWS V13.01,2013-01-03 17:43:00,
2013-01-03 11:44:00,38.1,35.7,29.56,WNW,300,3.6,3.6,91,0.00,,,0.00,VWS V13.01,2013-01-03 17:44:00,
2013-01-03 11:45:00,37.9,35.5,29.56,WNW,285,4.0,4.0,91,0.00,,,0.00,VWS V13.01,2013-01-03 17:45:00,
2013-01-03 11:46:00,38.5,36.1,29.56,WNW,285,0.0,0.0,91,0.00,,,0.00,VWS V13.01,2013-01-03 17:46:00,
2013-01-03 11:48:00,38.5,36.1,29.56,WNW,299,0.0,0.0,91,0.00,,,0.00,VWS V13.01,2013-01-03 17:48:00,
2013-01-03 11:49:00,38.7,36.3,29.56,West,268,0.0,0.0,91,0.00,,,0.00,VWS V13.01,2013-01-03 17:49:00,
2013-01-03 11:50:00,38.7,36.3,29.56,NW,306,0.0,0.0,91,0.00,,,0.00,VWS V13.01,2013-01-03 17:50:00,
2013-01-03 11:51:00,37.6,35.2,29.56,WNW,290,4.9,4.9,91,0.00,,,0.00,VWS V13.01,2013-01-03 17:51:00,
2013-01-03 11:53:00,38.1,35.7,29.56,NW,305,0.0,0.0,91,0.00,,,0.00,VWS V13.01,2013-01-03 17:53:00,
2013-01-03 11:54:00,38.7,36.3,29.56,NW,305,0.0,0.0,91,0.00,,,0.00,VWS V13.01,2013-01-03 17:54:00,
2013-01-03 11:55:00,38.7,36.3,29.56,WNW,303,4.0,4.0,91,0.00,,,0.00,VWS V13.01,2013-01-03 17:55:00,
2013-01-03 11:56:00,38.3,35.9,29.56,West,264,4.9,4.9,91,0.00,,,0.00,VWS V13.01,2013-01-03 17:56:00,
2013-01-03 11:58:00,38.5,36.1,29.56,WNW,302,5.4,5.4,91,0.00,,,0.00,VWS V13.01,2013-01-03 17:58:00,
2013-01-03 11:59:00,39.0,36.6,29.56,West,279,0.0,0.0,91,0.00,,,0.00,VWS V13.01,2013-01-03 17:59:00,
2013-01-03 12:00:00,38.8,36.4,29.56,West,279,0.0,0.0,91,0.00,,,0.00,VWS V13.01,2013-01-03 18:00:00,
2013-01-03 12:01:00,39.9,35.8,29.56,NW,305,0.0,0.0,85,0.00,,,0.00,VWS V13.01,2013-01-03 18:01:00,
2013-01-03 12:03:00,39.7,35.6,29.56,WNW,285,4.9,4.9,85,0.00,,,0.00,VWS V13.01,2013-01-03 18:03:00,
2013-01-03 12:04:00,41.4,37.2,29.56,NW,305,3.1,3.1,85,0.00,,,0.00,VWS V13.01,2013-01-03 18:04:00,
2013-01-03 12:05:00,41.4,37.2,29.56,NW,311,0.0,0.0,85,0.00,,,0.00,VWS V13.01,2013-01-03 18:05:00,
2013-01-03 12:06:00,42.1,37.9,29.56,NW,316,2.2,2.2,85,0.00,,,0.00,VWS V13.01,2013-01-03 18:06:00,
2013-01-03 12:08:00,41.7,37.5,29.56,West,268,4.9,4.9,85,0.00,,,0.00,VWS V13.01,2013-01-03 18:08:00,
2013-01-03 12:09:00,43.3,39.1,29.56,West,259,0.0,0.0,85,0.00,,,0.00,VWS V13.01,2013-01-03 18:09:00,
2013-01-03 12:10:00,43.0,38.8,29.56,West,259,0.0,0.0,85,0.00,,,0.00,VWS V13.01,2013-01-03 18:10:00,
2013-01-03 12:11:00,42.4,38.3,29.56,West,281,6.3,6.3,85,0.00,,,0.00,VWS V13.01,2013-01-03 18:11:00,
2013-01-03 12:14:00,41.5,37.4,29.56,WNW,283,2.7,2.7,85,0.00,,,0.00,VWS V13.01,2013-01-03 18:14:00,
2013-01-03 12:15:00,40.6,36.5,29.56,West,271,5.8,5.8,85,0.00,,,0.00,VWS V13.01,2013-01-03 18:15:00,
2013-01-03 12:16:00,40.8,36.7,29.56,West,266,0.0,0.0,85,0.00,,,0.00,VWS V13.01,2013-01-03 18:16:00,
2013-01-03 12:19:00,40.6,36.5,29.56,NW,319,0.0,0.0,85,0.00,,,0.00,VWS V13.01,2013-01-03 18:19:00,
2013-01-03 12:20:00,41.0,36.8,29.56,West,265,0.0,0.0,85,0.00,,,0.00,VWS V13.01,2013-01-03 18:20:00,
2013-01-03 12:21:00,40.6,36.5,29.56,WNW,290,5.4,5.4,85,0.00,,,0.00,VWS V13.01,2013-01-03 18:21:00,
2013-01-03 12:24:00,39.9,35.8,29.56,WSW,256,3.1,3.1,85,0.00,,,0.00,VWS V13.01,2013-01-03 18:24:00,
2013-01-03 12:25:00,39.9,35.8,29.56,WSW,256,0.0,0.0,85,0.00,,,0.00,VWS V13.01,2013-01-03 18:25:00,
2013-01-03 12:26:00,39.9,35.8,29.56,WSW,254,2.2,2.2,85,0.00,,,0.00,VWS V13.01,2013-01-03 18:26:00,
2013-01-03 12:29:00,39.2,35.1,29.53,West,260,6.3,6.3,85,0.00,,,0.00,VWS V13.01,2013-01-03 18:29:00,
2013-01-03 12:30:00,39.7,35.6,29.53,WNW,290,2.2,2.2,85,0.00,,,0.00,VWS V13.01,2013-01-03 18:30:00,
2013-01-03 12:31:00,39.0,36.6,29.53,WNW,291,2.2,2.2,91,0.00,,,0.00,VWS V13.01,2013-01-03 18:31:00,
2013-01-03 12:34:00,39.2,35.1,29.53,WNW,297,8.1,8.1,85,0.00,,,0.00,VWS V13.01,2013-01-03 18:34:00,
2013-01-03 12:35:00,38.7,36.3,29.53,WNW,292,5.4,5.4,91,0.00,,,0.00,VWS V13.01,2013-01-03 18:35:00,
2013-01-03 12:37:00,38.8,36.4,29.53,NW,305,4.0,4.0,91,0.00,,,0.00,VWS V13.01,2013-01-03 18:37:00,
2013-01-03 12:39:00,38.5,36.1,29.53,West,277,6.3,6.3,91,0.00,,,0.00,VWS V13.01,2013-01-03 18:39:00,
2013-01-03 12:40:00,38.8,36.4,29.53,WNW,286,4.9,4.9,91,0.00,,,0.00,VWS V13.01,2013-01-03 18:40:00,
2013-01-03 12:42:00,38.7,36.3,29.53,West,271,7.6,7.6,91,0.00,,,0.00,VWS V13.01,2013-01-03 18:42:00,
2013-01-03 12:44:00,38.7,36.3,29.53,WSW,258,7.2,7.2,91,0.00,,,0.00,VWS V13.01,2013-01-03 18:44:00,
2013-01-03 12:45:00,38.7,36.3,29.53,West,265,6.3,6.3,91,0.00,,,0.00,VWS V13.01,2013-01-03 18:45:00,
2013-01-03 12:47:00,38.5,36.1,29.53,West,281,5.8,5.8,91,0.00,,,0.00,VWS V13.01,2013-01-03 18:47:00,
2013-01-03 12:49:00,40.3,36.1,29.53,WNW,289,4.9,4.9,85,0.00,,,0.00,VWS V13.01,2013-01-03 18:49:00,
2013-01-03 12:50:00,40.3,36.1,29.53,WNW,289,7.6,7.6,85,0.00,,,0.00,VWS V13.01,2013-01-03 18:50:00,
2013-01-03 12:52:00,40.1,36.0,29.53,WNW,291,4.0,4.0,85,0.00,,,0.00,VWS V13.01,2013-01-03 18:52:00,
2013-01-03 12:54:00,40.5,36.3,29.53,West,270,2.7,2.7,85,0.00,,,0.00,VWS V13.01,2013-01-03 18:54:00,
2013-01-03 12:55:00,40.1,36.0,29.53,West,274,0.0,0.0,85,0.00,,,0.00,VWS V13.01,2013-01-03 18:55:00,
2013-01-03 12:57:00,39.6,35.4,29.53,West,280,2.7,2.7,85,0.00,,,0.00,VWS V13.01,2013-01-03 18:57:00,
2013-01-03 12:59:00,39.2,35.1,29.53,WNW,292,5.4,5.4,85,0.00,,,0.00,VWS V13.01,2013-01-03 18:59:00,
2013-01-03 13:00:00,39.2,35.1,29.53,West,279,4.0,4.0,85,0.00,,,0.00,VWS V13.01,2013-01-03 19:00:00,
2013-01-03 13:02:00,39.4,35.2,29.53,West,269,3.6,3.6,85,0.00,,,0.00,VWS V13.01,2013-01-03 19:02:00,
2013-01-03 13:04:00,39.4,35.2,29.53,WNW,289,5.4,5.4,85,0.00,,,0.00,VWS V13.01,2013-01-03 19:04:00,
2013-01-03 13:05:00,39.7,35.6,29.53,West,278,3.6,3.6,85,0.00,,,0.00,VWS V13.01,2013-01-03 19:05:00,
2013-01-03 13:07:00,39.4,35.2,29.53,West,279,3.6,3.6,85,0.00,,,0.00,VWS V13.01,2013-01-03 19:07:00,
2013-01-03 13:09:00,39.0,36.6,29.53,West,281,3.6,3.6,91,0.00,,,0.00,VWS V13.01,2013-01-03 19:09:00,
2013-01-03 13:10:00,39.2,35.1,29.53,WSW,247,0.0,0.0,85,0.00,,,0.00,VWS V13.01,2013-01-03 19:10:00,
2013-01-03 13:12:00,39.7,35.6,29.53,WSW,256,2.2,2.2,85,0.00,,,0.00,VWS V13.01,2013-01-03 19:12:00,
2013-01-03 13:14:00,38.8,36.4,29.53,West,272,5.4,5.4,91,0.00,,,0.00,VWS V13.01,2013-01-03 19:14:00,
2013-01-03 13:15:00,38.7,36.3,29.53,WNW,292,7.2,7.2,91,0.00,,,0.00,VWS V13.01,2013-01-03 19:15:00,
2013-01-03 13:17:00,39.2,35.1,29.53,WNW,290,0.0,0.0,85,0.00,,,0.00,VWS V13.01,2013-01-03 19:17:00,
2013-01-03 13:52:00,38.1,35.7,29.53,West,264,0.0,0.0,91,0.00,,,0.00,VWS V13.01,2013-01-03 19:52:00,
2013-01-03 13:54:00,38.1,35.7,29.53,WNW,284,0.0,0.0,91,0.00,,,0.00,VWS V13.01,2013-01-03 19:54:00,
2013-01-03 13:55:00,38.1,35.7,29.53,WNW,284,0.0,0.0,91,0.00,,,0.00,VWS V13.01,2013-01-03 19:55:00,
2013-01-03 13:57:00,38.1,35.7,29.50,WNW,284,0.0,0.0,91,0.00,,,0.00,VWS V13.01,2013-01-03 19:57:00,
2013-01-03 13:59:00,37.9,35.5,29.50,West,273,0.0,0.0,91,0.00,,,0.00,VWS V13.01,2013-01-03 19:59:00,
2013-01-03 14:00:00,37.9,35.5,29.50,West,273,0.0,0.0,91,0.00,,,0.00,VWS V13.01,2013-01-03 20:00:00,
2013-01-03 14:02:00,37.9,35.5,29.50,West,272,0.0,0.0,91,0.00,,,0.00,VWS V13.01,2013-01-03 20:02:00,
2013-01-03 14:04:00,37.8,35.4,29.50,West,268,4.0,4.0,91,0.00,,,0.00,VWS V13.01,2013-01-03 20:04:00,
2013-01-03 14:05:00,37.9,35.5,29.50,West,267,0.0,0.0,91,0.00,,,0.00,VWS V13.01,2013-01-03 20:05:00,
2013-01-03 14:07:00,38.7,36.3,29.50,West,259,0.0,0.0,91,0.00,,,0.00,VWS V13.01,2013-01-03 20:07:00,
2013-01-03 14:09:00,39.0,36.6,29.50,WNW,287,0.0,0.0,91,0.00,,,0.00,VWS V13.01,2013-01-03 20:09:00,
2013-01-03 14:10:00,39.0,36.6,29.50,WNW,297,3.1,3.1,91,0.00,,,0.00,VWS V13.01,2013-01-03 20:10:00,
2013-01-03 14:13:00,39.4,35.2,29.53,WSW,257,6.3,6.3,85,0.00,,,0.00,VWS V13.01,2013-01-03 20:13:00,
2013-01-03 14:14:00,38.8,36.4,29.53,WNW,284,5.8,5.8,91,0.00,,,0.00,VWS V13.01,2013-01-03 20:14:00,
2013-01-03 14:15:00,38.8,36.4,29.53,West,270,7.6,7.6,91,0.00,,,0.00,VWS V13.01,2013-01-03 20:15:00,
2013-01-03 14:18:00,39.7,35.6,29.53,West,270,3.6,3.6,85,0.00,,,0.00,VWS V13.01,2013-01-03 20:18:00,
2013-01-03 14:19:00,38.8,36.4,29.53,WNW,299,7.2,7.2,91,0.00,,,0.00,VWS V13.01,2013-01-03 20:19:00,
2013-01-03 14:20:00,38.8,36.4,29.53,West,263,6.3,6.3,91,0.00,,,0.00,VWS V13.01,2013-01-03 20:20:00,
2013-01-03 14:23:00,39.9,35.8,29.53,WSW,248,0.0,0.0,85,0.00,,,0.00,VWS V13.01,2013-01-03 20:23:00,
2013-01-03 14:25:00,39.4,35.2,29.53,WSW,244,3.6,3.6,85,0.00,,,0.00,VWS V13.01,2013-01-03 20:25:00,
2013-01-03 14:28:00,39.0,36.6,29.53,WSW,258,0.0,0.0,91,0.00,,,0.00,VWS V13.01,2013-01-03 20:28:00,
2013-01-03 14:30:00,39.4,35.2,29.53,West,265,0.0,0.0,85,0.00,,,0.00,VWS V13.01,2013-01-03 20:30:00,
2013-01-03 14:33:00,40.5,36.3,29.53,SW,226,0.0,0.0,85,0.00,,,0.00,VWS V13.01,2013-01-03 20:33:00,
2013-01-03 14:35:00,41.0,36.8,29.53,SW,229,0.0,0.0,85,0.00,,,0.00,VWS V13.01,2013-01-03 20:35:00,
2013-01-03 14:38:00,39.6,35.4,29.53,WNW,285,4.9,4.9,85,0.00,,,0.00,VWS V13.01,2013-01-03 20:38:00,
2013-01-03 14:40:00,38.5,36.1,29.53,West,271,6.3,6.3,91,0.00,,,0.00,VWS V13.01,2013-01-03 20:40:00,
2013-01-03 14:41:00,38.7,36.3,29.53,NW,304,4.0,4.0,91,0.00,,,0.00,VWS V13.01,2013-01-03 20:41:00,
2013-01-03 14:43:00,38.1,35.7,29.53,West,263,0.0,0.0,91,0.00,,,0.00,VWS V13.01,2013-01-03 20:43:00,
2013-01-03 14:45:00,38.3,35.9,29.53,West,276,0.0,0.0,91,0.00,,,0.00,VWS V13.01,2013-01-03 20:45:00,
2013-01-03 14:46:00,38.3,35.9,29.53,West,276,0.0,0.0,91,0.00,,,0.00,VWS V13.01,2013-01-03 20:46:00,
2013-01-03 14:48:00,38.1,35.7,29.53,NW,305,0.0,0.0,91,0.00,,,0.00,VWS V13.01,2013-01-03 20:48:00,
2013-01-03 14:50:00,38.3,35.9,29.53,WNW,290,0.0,0.0,91,0.00,,,0.00,VWS V13.01,2013-01-03 20:50:00,
2013-01-03 14:51:00,38.7,36.3,29.53,West,280,0.0,0.0,91,0.00,,,0.00,VWS V13.01,2013-01-03 20:51:00,
2013-01-03 14:53:00,39.4,35.2,29.53,West,277,0.0,0.0,85,0.00,,,0.00,VWS V13.01,2013-01-03 20:53:00,
2013-01-03 14:55:00,39.7,35.6,29.53,WNW,285,3.6,3.6,85,0.00,,,0.00,VWS V13.01,2013-01-03 20:55:00,
2013-01-03 14:56:00,39.2,35.1,29.53,West,272,3.6,3.6,85,0.00,,,0.00,VWS V13.01,2013-01-03 20:56:00,
2013-01-03 14:58:00,39.2,35.1,29.53,WNW,288,0.0,0.0,85,0.00,,,0.00,VWS V13.01,2013-01-03 20:58:00,
2013-01-03 15:00:00,39.0,36.6,29.53,WNW,293,0.0,0.0,91,0.00,,,0.00,VWS V13.01,2013-01-03 21:00:00,
2013-01-03 15:01:00,39.0,36.6,29.53,West,274,0.0,0.0,91,0.00,,,0.00,VWS V13.01,2013-01-03 21:01:00,
2013-01-03 15:03:00,39.2,35.1,29.53,WSW,248,0.0,0.0,85,0.00,,,0.00,VWS V13.01,2013-01-03 21:03:00,
2013-01-03 15:05:00,38.7,36.3,29.53,West,264,5.4,5.4,91,0.00,,,0.00,VWS V13.01,2013-01-03 21:05:00,
2013-01-03 15:06:00,38.5,36.1,29.53,West,271,4.0,4.0,91,0.00,,,0.00,VWS V13.01,2013-01-03 21:06:00,
2013-01-03 15:08:00,39.2,35.1,29.53,West,275,0.0,0.0,85,0.00,,,0.00,VWS V13.01,2013-01-03 21:08:00,
2013-01-03 15:10:00,39.6,35.4,29.53,WSW,252,0.0,0.0,85,0.00,,,0.00,VWS V13.01,2013-01-03 21:10:00,
2013-01-03 15:11:00,39.7,35.6,29.53,West,263,0.0,0.0,85,0.00,,,0.00,VWS V13.01,2013-01-03 21:11:00,
2013-01-03 15:13:00,39.7,35.6,29.56,West,270,0.0,0.0,85,0.00,,,0.00,VWS V13.01,2013-01-03 21:13:00,
2013-01-03 15:15:00,39.9,35.8,29.56,SW,232,2.2,2.2,85,0.00,,,0.00,VWS V13.01,2013-01-03 21:15:00,
2013-01-03 15:16:00,39.7,35.6,29.56,SW,230,0.0,0.0,85,0.00,,,0.00,VWS V13.01,2013-01-03 21:16:00,
2013-01-03 15:18:00,39.0,36.6,29.56,West,259,2.7,2.7,91,0.00,,,0.00,VWS V13.01,2013-01-03 21:18:00,
2013-01-03 15:20:00,37.9,35.5,29.56,WNW,294,5.4,5.4,91,0.00,,,0.00,VWS V13.01,2013-01-03 21:20:00,
2013-01-03 15:21:00,37.9,35.5,29.56,WNW,297,0.0,0.0,91,0.00,,,0.00,VWS V13.01,2013-01-03 21:21:00,
2013-01-03 15:23:00,37.6,35.2,29.56,West,274,4.0,4.0,91,0.00,,,0.00,VWS V13.01,2013-01-03 21:23:00,
2013-01-03 15:25:00,37.9,35.5,29.56,WNW,282,6.3,6.3,91,0.00,,,0.00,VWS V13.01,2013-01-03 21:25:00,
2013-01-03 15:26:00,37.9,35.5,29.56,West,281,4.0,4.0,91,0.00,,,0.00,VWS V13.01,2013-01-03 21:26:00,
2013-01-03 15:28:00,38.8,36.4,29.53,WNW,284,3.6,3.6,91,0.00,,,0.00,VWS V13.01,2013-01-03 21:28:00,
2013-01-03 15:30:00,38.5,36.1,29.53,WNW,290,4.9,4.9,91,0.00,,,0.00,VWS V13.01,2013-01-03 21:30:00,
2013-01-03 15:31:00,38.5,36.1,29.53,West,273,2.2,2.2,91,0.00,,,0.00,VWS V13.01,2013-01-03 21:31:00,
2013-01-03 15:33:00,38.5,36.1,29.53,West,272,0.0,0.0,91,0.00,,,0.00,VWS V13.01,2013-01-03 21:33:00,
2013-01-03 15:35:00,38.1,35.7,29.53,West,272,0.0,0.0,91,0.00,,,0.00,VWS V13.01,2013-01-03 21:35:00,
2013-01-03 15:36:00,37.8,35.4,29.53,West,267,0.0,0.0,91,0.00,,,0.00,VWS V13.01,2013-01-03 21:36:00,
2013-01-03 15:38:00,37.6,35.2,29.53,West,262,0.0,0.0,91,0.00,,,0.00,VWS V13.01,2013-01-03 21:38:00,
2013-01-03 15:41:00,37.6,35.2,29.53,West,262,0.0,0.0,91,0.00,,,0.00,VWS V13.01,2013-01-03 21:41:00,
2013-01-03 15:42:00,37.8,35.4,29.53,West,262,0.0,0.0,91,0.00,,,0.00,VWS V13.01,2013-01-03 21:42:00,
2013-01-03 15:43:00,37.9,35.5,29.53,West,281,3.6,3.6,91,0.00,,,0.00,VWS V13.01,2013-01-03 21:43:00,
2013-01-03 15:44:00,38.1,35.7,29.53,West,274,0.0,0.0,91,0.00,,,0.00,VWS V13.01,2013-01-03 21:44:00,
2013-01-03 15:47:00,38.1,35.7,29.53,West,265,0.0,0.0,91,0.00,,,0.00,VWS V13.01,2013-01-03 21:47:00,
2013-01-03 15:48:00,37.9,35.5,29.53,West,280,0.0,0.0,91,0.00,,,0.00,VWS V13.01,2013-01-03 21:48:00,
2013-01-03 15:50:00,37.8,35.4,29.53,WNW,283,3.6,3.6,91,0.00,,,0.00,VWS V13.01,2013-01-03 21:50:00,
2013-01-03 15:52:00,37.6,35.2,29.53,West,262,0.0,0.0,91,0.00,,,0.00,VWS V13.01,2013-01-03 21:52:00,
2013-01-03 15:53:00,37.4,35.0,29.53,West,277,3.1,3.1,91,0.00,,,0.00,VWS V13.01,2013-01-03 21:53:00,
2013-01-03 15:55:00,37.2,34.8,29.53,WNW,283,0.0,0.0,91,0.00,,,0.00,VWS V13.01,2013-01-03 21:55:00,
2013-01-03 15:57:00,37.0,34.7,29.53,West,275,0.0,0.0,91,0.00,,,0.00,VWS V13.01,2013-01-03 21:57:00,
2013-01-03 15:58:00,37.0,34.7,29.53,West,276,0.0,0.0,91,0.00,,,0.00,VWS V13.01,2013-01-03 21:58:00,
2013-01-03 16:00:00,36.9,34.5,29.53,West,276,0.0,0.0,91,0.00,,,0.00,VWS V13.01,2013-01-03 22:00:00,
2013-01-03 16:02:00,36.7,34.3,29.53,West,276,0.0,0.0,91,0.00,,,0.00,VWS V13.01,2013-01-03 22:02:00,
2013-01-03 16:03:00,36.7,34.3,29.53,West,276,0.0,0.0,91,0.00,,,0.00,VWS V13.01,2013-01-03 22:03:00,
2013-01-03 16:05:00,36.3,34.0,29.53,West,280,0.0,0.0,91,0.00,,,0.00,VWS V13.01,2013-01-03 22:05:00,
2013-01-03 16:07:00,36.0,33.6,29.53,West,280,0.0,0.0,91,0.00,,,0.00,VWS V13.01,2013-01-03 22:07:00,
2013-01-03 16:08:00,36.0,33.6,29.53,West,280,0.0,0.0,91,0.00,,,0.00,VWS V13.01,2013-01-03 22:08:00,
2013-01-03 16:11:00,35.8,29.9,29.53,West,281,2.7,2.7,79,0.00,,,0.00,VWS V13.01,2013-01-03 22:11:00,
2013-01-03 16:12:00,35.6,29.7,29.53,West,281,0.0,0.0,79,0.00,,,0.00,VWS V13.01,2013-01-03 22:12:00,
2013-01-03 16:13:00,35.8,29.9,29.53,West,281,0.0,0.0,79,0.00,,,0.00,VWS V13.01,2013-01-03 22:13:00,
2013-01-03 16:16:00,35.6,29.7,29.53,West,281,0.0,0.0,79,0.00,,,0.00,VWS V13.01,2013-01-03 22:16:00,
2013-01-03 16:17:00,35.6,29.7,29.53,West,281,0.0,0.0,79,0.00,,,0.00,VWS V13.01,2013-01-03 22:17:00,
2013-01-03 16:18:00,35.6,29.7,29.53,West,280,3.6,3.6,79,0.00,,,0.00,VWS V13.01,2013-01-03 22:18:00,
2013-01-03 16:21:00,35.4,29.6,29.53,West,279,0.0,0.0,79,0.00,,,0.00,VWS V13.01,2013-01-03 22:21:00,
2013-01-03 16:22:00,35.4,29.6,29.53,West,279,3.1,3.1,79,0.00,,,0.00,VWS V13.01,2013-01-03 22:22:00,
2013-01-03 16:23:00,35.2,29.4,29.53,West,279,0.0,0.0,79,0.00,,,0.00,VWS V13.01,2013-01-03 22:23:00,
2013-01-03 16:26:00,35.1,29.2,29.53,WNW,283,3.1,3.1,79,0.00,,,0.00,VWS V13.01,2013-01-03 22:26:00,
2013-01-03 16:27:00,34.9,29.0,29.53,WNW,283,0.0,0.0,79,0.00,,,0.00,VWS V13.01,2013-01-03 22:27:00,
2013-01-03 16:28:00,34.9,29.0,29.53,WNW,283,0.0,0.0,79,0.00,,,0.00,VWS V13.01,2013-01-03 22:28:00,
2013-01-03 16:31:00,34.5,28.7,29.53,WNW,283,0.0,0.0,79,0.00,,,0.00,VWS V13.01,2013-01-03 22:31:00,
2013-01-03 16:32:00,34.5,28.7,29.53,WNW,283,0.0,0.0,79,0.00,,,0.00,VWS V13.01,2013-01-03 22:32:00,
2013-01-03 16:33:00,34.5,28.7,29.53,WNW,283,0.0,0.0,79,0.00,,,0.00,VWS V13.01,2013-01-03 22:33:00,
2013-01-03 16:34:00,34.3,28.5,29.53,WNW,283,0.0,0.0,79,0.00,,,0.00,VWS V13.01,2013-01-03 22:34:00,
2013-01-03 16:36:00,34.0,28.2,29.53,WNW,283,0.0,0.0,79,0.00,,,0.00,VWS V13.01,2013-01-03 22:36:00,
2013-01-03 16:37:00,34.0,28.2,29.53,WNW,283,0.0,0.0,79,0.00,,,0.00,VWS V13.01,2013-01-03 22:37:00,
2013-01-03 16:38:00,33.8,28.0,29.53,WNW,283,0.0,0.0,79,0.00,,,0.00,VWS V13.01,2013-01-03 22:38:00,
2013-01-03 16:39:00,33.8,28.0,29.53,WNW,283,0.0,0.0,79,0.00,,,0.00,VWS V13.01,2013-01-03 22:39:00,
2013-01-03 16:41:00,33.6,29.6,29.53,WNW,283,0.0,0.0,85,0.00,,,0.00,VWS V13.01,2013-01-03 22:41:00,
2013-01-03 16:42:00,33.4,29.4,29.53,WNW,283,0.0,0.0,85,0.00,,,0.00,VWS V13.01,2013-01-03 22:42:00,
2013-01-03 16:43:00,33.3,29.2,29.53,WNW,283,0.0,0.0,85,0.00,,,0.00,VWS V13.01,2013-01-03 22:43:00,
2013-01-03 16:44:00,33.3,29.2,29.53,WNW,283,0.0,0.0,85,0.00,,,0.00,VWS V13.01,2013-01-03 22:44:00,
2013-01-03 16:46:00,33.3,29.2,29.53,WNW,283,0.0,0.0,85,0.00,,,0.00,VWS V13.01,2013-01-03 22:46:00,
2013-01-03 16:47:00,33.1,29.1,29.53,WNW,283,0.0,0.0,85,0.00,,,0.00,VWS V13.01,2013-01-03 22:47:00,
2013-01-03 16:48:00,32.9,28.9,29.53,WNW,283,0.0,0.0,85,0.00,,,0.00,VWS V13.01,2013-01-03 22:48:00,
2013-01-03 16:49:00,32.9,28.9,29.53,WNW,283,0.0,0.0,85,0.00,,,0.00,VWS V13.01,2013-01-03 22:49:00,
2013-01-03 16:51:00,32.7,28.7,29.53,WNW,283,0.0,0.0,85,0.00,,,0.00,VWS V13.01,2013-01-03 22:51:00,
2013-01-03 16:52:00,32.7,28.7,29.53,WNW,283,0.0,0.0,85,0.00,,,0.00,VWS V13.01,2013-01-03 22:52:00,
2013-01-03 16:53:00,32.5,28.5,29.53,WNW,283,0.0,0.0,85,0.00,,,0.00,VWS V13.01,2013-01-03 22:53:00,
2013-01-03 16:54:00,32.4,28.4,29.53,WNW,283,0.0,0.0,85,0.00,,,0.00,VWS V13.01,2013-01-03 22:54:00,
2013-01-03 16:56:00,32.2,28.2,29.53,WNW,283,0.0,0.0,85,0.00,,,0.00,VWS V13.01,2013-01-03 22:56:00,
2013-01-03 16:57:00,32.0,28.0,29.56,WNW,283,0.0,0.0,85,0.00,,,0.00,VWS V13.01,2013-01-03 22:57:00,
2013-01-03 16:58:00,32.0,28.0,29.56,WNW,283,0.0,0.0,85,0.00,,,0.00,VWS V13.01,2013-01-03 22:58:00,
2013-01-03 16:59:00,31.8,27.8,29.56,WNW,283,0.0,0.0,85,0.00,,,0.00,VWS V13.01,2013-01-03 22:59:00,
2013-01-03 17:01:00,31.6,27.7,29.56,WNW,283,0.0,0.0,85,0.00,,,0.00,VWS V13.01,2013-01-03 23:01:00,
2013-01-03 17:03:00,31.8,27.8,29.56,WNW,283,0.0,0.0,85,0.00,,,0.00,VWS V13.01,2013-01-03 23:03:00,
2013-01-03 17:04:00,32.0,28.0,29.56,WNW,283,0.0,0.0,85,0.00,,,0.00,VWS V13.01,2013-01-03 23:04:00,
2013-01-03 17:06:00,32.0,28.0,29.56,WNW,283,0.0,0.0,85,0.00,,,0.00,VWS V13.01,2013-01-03 23:06:00,
2013-01-03 17:08:00,31.8,27.8,29.56,WNW,283,0.0,0.0,85,0.00,,,0.00,VWS V13.01,2013-01-03 23:08:00,
2013-01-03 17:09:00,31.8,27.8,29.56,WNW,283,0.0,0.0,85,0.00,,,0.00,VWS V13.01,2013-01-03 23:09:00,
2013-01-03 17:11:00,31.8,27.8,29.56,WNW,283,0.0,0.0,85,0.00,,,0.00,VWS V13.01,2013-01-03 23:11:00,
2013-01-03 17:13:00,31.6,27.7,29.56,WNW,283,0.0,0.0,85,0.00,,,0.00,VWS V13.01,2013-01-03 23:13:00,
2013-01-03 17:14:00,31.6,27.7,29.56,WNW,302,0.0,0.0,85,0.00,,,0.00,VWS V13.01,2013-01-03 23:14:00,
2013-01-03 17:16:00,32.0,28.0,29.56,WNW,302,0.0,0.0,85,0.00,,,0.00,VWS V13.01,2013-01-03 23:16:00,
2013-01-03 17:18:00,32.0,28.0,29.56,WNW,302,0.0,0.0,85,0.00,,,0.00,VWS V13.01,2013-01-03 23:18:00,
2013-01-03 17:19:00,32.0,28.0,29.56,WNW,302,0.0,0.0,85,0.00,,,0.00,VWS V13.01,2013-01-03 23:19:00,
2013-01-03 17:21:00,32.5,28.5,29.56,WNW,302,0.0,0.0,85,0.00,,,0.00,VWS V13.01,2013-01-03 23:21:00,
2013-01-03 17:23:00,32.5,28.5,29.56,WNW,302,0.0,0.0,85,0.00,,,0.00,VWS V13.01,2013-01-03 23:23:00,
2013-01-03 17:24:00,32.5,28.5,29.56,WNW,302,0.0,0.0,85,0.00,,,0.00,VWS V13.01,2013-01-03 23:24:00,
2013-01-03 17:26:00,32.4,28.4,29.56,WNW,302,0.0,0.0,85,0.00,,,0.00,VWS V13.01,2013-01-03 23:26:00,
2013-01-03 17:28:00,32.4,28.4,29.56,WNW,302,0.0,0.0,85,0.00,,,0.00,VWS V13.01,2013-01-03 23:28:00,
2013-01-03 17:29:00,32.4,28.4,29.56,WNW,302,0.0,0.0,85,0.00,,,0.00,VWS V13.01,2013-01-03 23:29:00,
2013-01-03 17:31:00,32.4,28.4,29.56,WNW,302,0.0,0.0,85,0.00,,,0.00,VWS V13.01,2013-01-03 23:31:00,
2013-01-03 17:33:00,32.5,28.5,29.56,WNW,302,0.0,0.0,85,0.00,,,0.00,VWS V13.01,2013-01-03 23:33:00,
2013-01-03 17:34:00,32.4,28.4,29.56,WNW,302,0.0,0.0,85,0.00,,,0.00,VWS V13.01,2013-01-03 23:34:00,
2013-01-03 17:37:00,32.2,28.2,29.56,WNW,302,0.0,0.0,85,0.00,,,0.00,VWS V13.01,2013-01-03 23:37:00,
2013-01-03 17:38:00,32.2,28.2,29.56,WNW,302,0.0,0.0,85,0.00,,,0.00,VWS V13.01,2013-01-03 23:38:00,
2013-01-03 17:39:00,32.0,28.0,29.56,WNW,302,0.0,0.0,85,0.00,,,0.00,VWS V13.01,2013-01-03 23:39:00,
2013-01-03 17:42:00,31.6,27.7,29.56,WNW,302,0.0,0.0,85,0.00,,,0.00,VWS V13.01,2013-01-03 23:42:00,
2013-01-03 17:43:00,31.6,27.7,29.56,WNW,302,0.0,0.0,85,0.00,,,0.00,VWS V13.01,2013-01-03 23:43:00,
2013-01-03 17:44:00,31.6,27.7,29.56,WNW,302,0.0,0.0,85,0.00,,,0.00,VWS V13.01,2013-01-03 23:44:00,
2013-01-03 17:47:00,31.5,27.5,29.56,WNW,302,0.0,0.0,85,0.00,,,0.00,VWS V13.01,2013-01-03 23:47:00,
2013-01-03 17:48:00,31.3,27.3,29.56,WNW,302,0.0,0.0,85,0.00,,,0.00,VWS V13.01,2013-01-03 23:48:00,
2013-01-03 17:49:00,31.3,27.3,29.56,WNW,302,0.0,0.0,85,0.00,,,0.00,VWS V13.01,2013-01-03 23:49:00,
2013-01-03 17:52:00,30.9,27.0,29.56,WNW,302,0.0,0.0,85,0.00,,,0.00,VWS V13.01,2013-01-03 23:52:00,
2013-01-03 17:53:00,30.9,27.0,29.56,WNW,302,0.0,0.0,85,0.00,,,0.00,VWS V13.01,2013-01-03 23:53:00,
2013-01-03 17:54:00,30.6,26.6,29.56,WNW,302,0.0,0.0,85,0.00,,,0.00,VWS V13.01,2013-01-03 23:54:00,
2013-01-03 17:57:00,30.4,26.4,29.56,WNW,302,0.0,0.0,85,0.00,,,0.00,VWS V13.01,2013-01-03 23:57:00,
2013-01-03 17:58:00,30.4,26.4,29.56,WNW,302,0.0,0.0,85,0.00,,,0.00,VWS V13.01,2013-01-03 23:58:00,
2013-01-03 18:00:00,30.2,26.2,29.56,WNW,302,0.0,0.0,85,0.00,,,0.00,VWS V13.01,2013-01-04 00:00:00,
2013-01-03 18:02:00,30.2,26.2,29.56,WNW,302,0.0,0.0,85,0.00,,,0.00,VWS V13.01,2013-01-04 00:02:00,
2013-01-03 18:03:00,30.0,26.1,29.56,WNW,302,0.0,0.0,85,0.00,,,0.00,VWS V13.01,2013-01-04 00:03:00,
2013-01-03 18:05:00,30.0,26.1,29.56,WNW,302,0.0,0.0,85,0.00,,,0.00,VWS V13.01,2013-01-04 00:05:00,
2013-01-03 18:07:00,30.2,26.2,29.56,WNW,302,0.0,0.0,85,0.00,,,0.00,VWS V13.01,2013-01-04 00:07:00,
2013-01-03 18:08:00,30.2,26.2,29.56,WNW,302,0.0,0.0,85,0.00,,,0.00,VWS V13.01,2013-01-04 00:08:00,
2013-01-03 18:10:00,30.0,26.1,29.56,WNW,302,0.0,0.0,85,0.00,,,0.00,VWS V13.01,2013-01-04 00:10:00,
2013-01-03 18:12:00,30.0,26.1,29.56,WNW,302,0.0,0.0,85,0.00,,,0.00,VWS V13.01,2013-01-04 00:12:00,
2013-01-03 18:13:00,29.7,25.7,29.56,WNW,302,0.0,0.0,85,0.00,,,0.00,VWS V13.01,2013-01-04 00:13:00,
2013-01-03 18:15:00,29.8,25.9,29.56,WNW,302,0.0,0.0,85,0.00,,,0.00,VWS V13.01,2013-01-04 00:15:00,
2013-01-03 18:17:00,29.7,25.7,29.56,WNW,302,0.0,0.0,85,0.00,,,0.00,VWS V13.01,2013-01-04 00:17:00,
2013-01-03 18:18:00,29.5,25.5,29.56,WNW,302,0.0,0.0,85,0.00,,,0.00,VWS V13.01,2013-01-04 00:18:00,
2013-01-03 18:20:00,29.1,25.2,29.56,WNW,302,0.0,0.0,85,0.00,,,0.00,VWS V13.01,2013-01-04 00:20:00,
2013-01-03 18:22:00,28.8,24.8,29.56,WNW,302,0.0,0.0,85,0.00,,,0.00,VWS V13.01,2013-01-04 00:22:00,
2013-01-03 18:23:00,28.8,24.8,29.56,WNW,302,0.0,0.0,85,0.00,,,0.00,VWS V13.01,2013-01-04 00:23:00,
2013-01-03 18:25:00,28.4,24.5,29.56,WNW,302,0.0,0.0,85,0.00,,,0.00,VWS V13.01,2013-01-04 00:25:00,
2013-01-03 18:27:00,28.4,24.5,29.56,WNW,302,0.0,0.0,85,0.00,,,0.00,VWS V13.01,2013-01-04 00:27:00,
2013-01-03 18:28:00,28.0,24.1,29.56,WNW,302,0.0,0.0,85,0.00,,,0.00,VWS V13.01,2013-01-04 00:28:00,
2013-01-03 18:30:00,28.0,28.0,29.56,WNW,302,0.0,0.0,100,0.00,,,0.00,VWS V13.01,2013-01-04 00:30:00,
2013-01-03 18:32:00,27.9,27.9,29.56,WNW,302,0.0,0.0,100,0.00,,,0.00,VWS V13.01,2013-01-04 00:32:00,
2013-01-03 18:33:00,27.9,27.9,29.56,WNW,302,0.0,0.0,100,0.00,,,0.00,VWS V13.01,2013-01-04 00:33:00,
2013-01-03 18:35:00,27.7,27.7,29.56,WNW,302,0.0,0.0,100,0.00,,,0.00,VWS V13.01,2013-01-04 00:35:00,
2013-01-03 18:37:00,27.7,27.7,29.56,WNW,302,0.0,0.0,100,0.00,,,0.00,VWS V13.01,2013-01-04 00:37:00,
2013-01-03 18:38:00,27.5,27.5,29.56,WNW,302,0.0,0.0,100,0.00,,,0.00,VWS V13.01,2013-01-04 00:38:00,
2013-01-03 18:40:00,27.5,27.5,29.56,WNW,302,0.0,0.0,100,0.00,,,0.00,VWS V13.01,2013-01-04 00:40:00,
2013-01-03 18:42:00,27.3,27.3,29.56,WNW,302,0.0,0.0,100,0.00,,,0.00,VWS V13.01,2013-01-04 00:42:00,
2013-01-03 18:43:00,27.3,27.3,29.56,WNW,302,0.0,0.0,100,0.00,,,0.00,VWS V13.01,2013-01-04 00:43:00,
2013-01-03 18:44:00,27.3,27.3,29.56,WNW,302,0.0,0.0,100,0.00,,,0.00,VWS V13.01,2013-01-04 00:44:00,
2013-01-03 18:45:00,27.1,27.1,29.56,WNW,302,0.0,0.0,100,0.00,,,0.00,VWS V13.01,2013-01-04 00:45:00,
2013-01-03 18:47:00,27.3,27.3,29.56,WNW,302,0.0,0.0,100,0.00,,,0.00,VWS V13.01,2013-01-04 00:47:00,
2013-01-03 18:49:00,27.5,27.5,29.56,WNW,302,0.0,0.0,100,0.00,,,0.00,VWS V13.01,2013-01-04 00:49:00,
2013-01-03 18:50:00,27.7,27.7,29.56,WNW,302,0.0,0.0,100,0.00,,,0.00,VWS V13.01,2013-01-04 00:50:00,
2013-01-03 18:52:00,27.5,27.5,29.56,WNW,302,0.0,0.0,100,0.00,,,0.00,VWS V13.01,2013-01-04 00:52:00,
2013-01-03 18:54:00,27.5,27.5,29.56,WNW,302,0.0,0.0,100,0.00,,,0.00,VWS V13.01,2013-01-04 00:54:00,
2013-01-03 18:55:00,27.3,27.3,29.56,WNW,302,0.0,0.0,100,0.00,,,0.00,VWS V13.01,2013-01-04 00:55:00,
2013-01-03 18:57:00,27.3,27.3,29.56,WNW,302,0.0,0.0,100,0.00,,,0.00,VWS V13.01,2013-01-04 00:57:00,
2013-01-03 18:59:00,27.3,27.3,29.56,WNW,302,0.0,0.0,100,0.00,,,0.00,VWS V13.01,2013-01-04 00:59:00,
2013-01-03 19:00:00,27.1,27.1,29.56,WNW,302,0.0,0.0,100,0.00,,,0.00,VWS V13.01,2013-01-04 01:00:00,
2013-01-03 19:02:00,27.1,27.1,29.56,WNW,302,0.0,0.0,100,0.00,,,0.00,VWS V13.01,2013-01-04 01:02:00,
2013-01-03 19:04:00,27.0,27.0,29.56,WNW,302,0.0,0.0,100,0.00,,,0.00,VWS V13.01,2013-01-04 01:04:00,
2013-01-03 19:05:00,27.0,27.0,29.56,WNW,302,0.0,0.0,100,0.00,,,0.00,VWS V13.01,2013-01-04 01:05:00,
2013-01-03 19:07:00,26.8,26.8,29.56,WNW,302,0.0,0.0,100,0.00,,,0.00,VWS V13.01,2013-01-04 01:07:00,
2013-01-03 19:09:00,26.6,26.6,29.56,WNW,302,0.0,0.0,100,0.00,,,0.00,VWS V13.01,2013-01-04 01:09:00,
2013-01-03 19:10:00,26.6,26.6,29.56,WNW,302,0.0,0.0,100,0.00,,,0.00,VWS V13.01,2013-01-04 01:10:00,
2013-01-03 19:12:00,26.8,26.8,29.56,WNW,302,0.0,0.0,100,0.00,,,0.00,VWS V13.01,2013-01-04 01:12:00,
2013-01-03 19:14:00,26.4,26.4,29.56,WNW,302,0.0,0.0,100,0.00,,,0.00,VWS V13.01,2013-01-04 01:14:00,
2013-01-03 19:15:00,26.6,26.6,29.56,WNW,302,0.0,0.0,100,0.00,,,0.00,VWS V13.01,2013-01-04 01:15:00,
2013-01-03 19:17:00,26.8,26.8,29.56,WNW,302,3.6,3.6,100,0.00,,,0.00,VWS V13.01,2013-01-04 01:17:00,
2013-01-03 19:19:00,26.8,26.8,29.56,WNW,302,0.0,0.0,100,0.00,,,0.00,VWS V13.01,2013-01-04 01:19:00,
2013-01-03 19:20:00,27.0,27.0,29.56,WNW,302,0.0,0.0,100,0.00,,,0.00,VWS V13.01,2013-01-04 01:20:00,
2013-01-03 19:22:00,26.8,26.8,29.56,WNW,302,0.0,0.0,100,0.00,,,0.00,VWS V13.01,2013-01-04 01:22:00,
2013-01-03 19:24:00,27.0,27.0,29.56,WNW,302,0.0,0.0,100,0.00,,,0.00,VWS V13.01,2013-01-04 01:24:00,
2013-01-03 19:25:00,27.0,27.0,29.56,WNW,302,0.0,0.0,100,0.00,,,0.00,VWS V13.01,2013-01-04 01:25:00,
2013-01-03 19:27:00,26.4,26.4,29.56,WNW,302,0.0,0.0,100,0.00,,,0.00,VWS V13.01,2013-01-04 01:27:00,
2013-01-03 19:29:00,26.4,26.4,29.56,WNW,302,0.0,0.0,100,0.00,,,0.00,VWS V13.01,2013-01-04 01:29:00,
2013-01-03 19:30:00,26.2,26.2,29.56,WNW,302,0.0,0.0,100,0.00,,,0.00,VWS V13.01,2013-01-04 01:30:00,
2013-01-03 19:32:00,26.1,26.1,29.56,WNW,302,0.0,0.0,100,0.00,,,0.00,VWS V13.01,2013-01-04 01:32:00,
2013-01-03 19:34:00,26.1,26.1,29.56,WNW,302,0.0,0.0,100,0.00,,,0.00,VWS V13.01,2013-01-04 01:34:00,
2013-01-03 19:35:00,26.1,26.1,29.56,WNW,302,0.0,0.0,100,0.00,,,0.00,VWS V13.01,2013-01-04 01:35:00,
2013-01-03 19:37:00,25.9,25.9,29.56,WNW,302,0.0,0.0,100,0.00,,,0.00,VWS V13.01,2013-01-04 01:37:00,
2013-01-03 19:39:00,25.9,25.9,29.56,WNW,302,0.0,0.0,100,0.00,,,0.00,VWS V13.01,2013-01-04 01:39:00,
2013-01-03 19:40:00,25.5,25.5,29.56,WNW,302,0.0,0.0,100,0.00,,,0.00,VWS V13.01,2013-01-04 01:40:00,
2013-01-03 19:42:00,25.2,25.2,29.56,WNW,302,0.0,0.0,100,0.00,,,0.00,VWS V13.01,2013-01-04 01:42:00,
2013-01-03 19:44:00,25.3,25.3,29.56,WNW,302,0.0,0.0,100,0.00,,,0.00,VWS V13.01,2013-01-04 01:44:00,
2013-01-03 19:45:00,25.3,25.3,29.56,WNW,302,0.0,0.0,100,0.00,,,0.00,VWS V13.01,2013-01-04 01:45:00,
2013-01-03 19:48:00,25.3,25.3,29.56,WNW,302,0.0,0.0,100,0.00,,,0.00,VWS V13.01,2013-01-04 01:48:00,
2013-01-03 19:49:00,25.3,25.3,29.56,WNW,302,0.0,0.0,100,0.00,,,0.00,VWS V13.01,2013-01-04 01:49:00,
2013-01-03 19:50:00,25.2,25.2,29.56,WNW,302,0.0,0.0,100,0.00,,,0.00,VWS V13.01,2013-01-04 01:50:00,
2013-01-03 19:53:00,25.2,25.2,29.56,WNW,302,0.0,0.0,100,0.00,,,0.00,VWS V13.01,2013-01-04 01:53:00,
2013-01-03 19:54:00,24.8,24.8,29.56,WNW,302,0.0,0.0,100,0.00,,,0.00,VWS V13.01,2013-01-04 01:54:00,
2013-01-03 19:55:00,24.8,24.8,29.56,WNW,302,0.0,0.0,100,0.00,,,0.00,VWS V13.01,2013-01-04 01:55:00,
2013-01-03 19:58:00,25.0,25.0,29.56,WNW,302,0.0,0.0,100,0.00,,,0.00,VWS V13.01,2013-01-04 01:58:00,
2013-01-03 19:59:00,24.4,24.4,29.56,WNW,302,0.0,0.0,100,0.00,,,0.00,VWS V13.01,2013-01-04 01:59:00,
2013-01-03 20:00:00,24.8,24.8,29.56,WNW,302,0.0,0.0,100,0.00,,,0.00,VWS V13.01,2013-01-04 02:00:00,
2013-01-03 20:03:00,24.8,24.8,29.56,WNW,302,0.0,0.0,100,0.00,,,0.00,VWS V13.01,2013-01-04 02:03:00,
2013-01-03 20:04:00,24.8,24.8,29.56,WNW,302,0.0,0.0,100,0.00,,,0.00,VWS V13.01,2013-01-04 02:04:00,
2013-01-03 20:05:00,25.0,25.0,29.56,WNW,302,0.0,0.0,100,0.00,,,0.00,VWS V13.01,2013-01-04 02:05:00,
2013-01-03 20:08:00,24.6,24.6,29.56,WNW,302,0.0,0.0,100,0.00,,,0.00,VWS V13.01,2013-01-04 02:08:00,
2013-01-03 20:09:00,24.4,24.4,29.56,WNW,302,0.0,0.0,100,0.00,,,0.00,VWS V13.01,2013-01-04 02:09:00,
2013-01-03 20:11:00,24.4,24.4,29.56,WNW,302,0.0,0.0,100,0.00,,,0.00,VWS V13.01,2013-01-04 02:11:00,
2013-01-03 20:13:00,24.3,24.3,29.59,WNW,302,0.0,0.0,100,0.00,,,0.00,VWS V13.01,2013-01-04 02:13:00,
2013-01-03 20:14:00,24.1,24.1,29.59,WNW,302,0.0,0.0,100,0.00,,,0.00,VWS V13.01,2013-01-04 02:14:00,
2013-01-03 20:16:00,24.3,24.3,29.59,WNW,302,0.0,0.0,100,0.00,,,0.00,VWS V13.01,2013-01-04 02:16:00,
2013-01-03 20:18:00,24.4,24.4,29.59,WNW,302,0.0,0.0,100,0.00,,,0.00,VWS V13.01,2013-01-04 02:18:00,
2013-01-03 20:19:00,24.4,24.4,29.59,WNW,302,0.0,0.0,100,0.00,,,0.00,VWS V13.01,2013-01-04 02:19:00,
2013-01-03 20:21:00,24.4,24.4,29.59,WNW,302,0.0,0.0,100,0.00,,,0.00,VWS V13.01,2013-01-04 02:21:00,
2013-01-03 20:23:00,24.4,24.4,29.59,WNW,302,0.0,0.0,100,0.00,,,0.00,VWS V13.01,2013-01-04 02:23:00,
2013-01-03 20:24:00,24.3,24.3,29.59,WNW,302,0.0,0.0,100,0.00,,,0.00,VWS V13.01,2013-01-04 02:24:00,
2013-01-03 20:26:00,24.4,24.4,29.59,WNW,302,0.0,0.0,100,0.00,,,0.00,VWS V13.01,2013-01-04 02:26:00,
2013-01-03 20:28:00,24.4,24.4,29.56,WNW,302,0.0,0.0,100,0.00,,,0.00,VWS V13.01,2013-01-04 02:28:00,
2013-01-03 20:29:00,24.3,24.3,29.56,WNW,302,0.0,0.0,100,0.00,,,0.00,VWS V13.01,2013-01-04 02:29:00,
2013-01-03 20:31:00,24.1,24.1,29.56,WNW,302,0.0,0.0,100,0.00,,,0.00,VWS V13.01,2013-01-04 02:31:00,
2013-01-03 20:33:00,23.9,23.9,29.56,WNW,302,0.0,0.0,100,0.00,,,0.00,VWS V13.01,2013-01-04 02:33:00,
2013-01-03 20:34:00,23.9,23.9,29.56,WNW,302,0.0,0.0,100,0.00,,,0.00,VWS V13.01,2013-01-04 02:34:00,
2013-01-03 20:36:00,23.7,23.7,29.56,WNW,302,0.0,0.0,100,0.00,,,0.00,VWS V13.01,2013-01-04 02:36:00,
2013-01-03 20:38:00,23.7,23.7,29.56,WNW,302,0.0,0.0,100,0.00,,,0.00,VWS V13.01,2013-01-04 02:38:00,
2013-01-03 20:39:00,23.7,23.7,29.56,WNW,302,0.0,0.0,100,0.00,,,0.00,VWS V13.01,2013-01-04 02:39:00,
2013-01-03 20:41:00,23.7,23.7,29.56,WNW,302,0.0,0.0,100,0.00,,,0.00,VWS V13.01,2013-01-04 02:41:00,
2013-01-03 20:43:00,23.7,23.7,29.56,WNW,302,0.0,0.0,100,0.00,,,0.00,VWS V13.01,2013-01-04 02:43:00,
2013-01-03 20:44:00,23.5,23.5,29.56,WNW,302,0.0,0.0,100,0.00,,,0.00,VWS V13.01,2013-01-04 02:44:00,
2013-01-03 20:46:00,23.9,23.9,29.56,WNW,302,0.0,0.0,100,0.00,,,0.00,VWS V13.01,2013-01-04 02:46:00,
2013-01-03 20:48:00,24.4,24.4,29.56,WNW,302,0.0,0.0,100,0.00,,,0.00,VWS V13.01,2013-01-04 02:48:00,
2013-01-03 20:49:00,24.4,24.4,29.56,WNW,302,0.0,0.0,100,0.00,,,0.00,VWS V13.01,2013-01-04 02:49:00,
2013-01-03 20:51:00,24.4,24.4,29.56,WNW,302,0.0,0.0,100,0.00,,,0.00,VWS V13.01,2013-01-04 02:51:00,
2013-01-03 20:53:00,24.4,24.4,29.56,WNW,302,0.0,0.0,100,0.00,,,0.00,VWS V13.01,2013-01-04 02:53:00,
2013-01-03 20:54:00,24.4,24.4,29.56,WNW,302,0.0,0.0,100,0.00,,,0.00,VWS V13.01,2013-01-04 02:54:00,
2013-01-03 20:56:00,24.4,24.4,29.56,WNW,302,0.0,0.0,100,0.00,,,0.00,VWS V13.01,2013-01-04 02:56:00,
2013-01-03 20:58:00,24.4,24.4,29.56,WNW,302,0.0,0.0,100,0.00,,,0.00,VWS V13.01,2013-01-04 02:58:00,
2013-01-03 20:59:00,24.3,24.3,29.56,WNW,302,0.0,0.0,100,0.00,,,0.00,VWS V13.01,2013-01-04 02:59:00,
2013-01-03 21:01:00,24.4,24.4,29.56,WNW,302,0.0,0.0,100,0.00,,,0.00,VWS V13.01,2013-01-04 03:01:00,
2013-01-03 21:03:00,24.3,24.3,29.56,WNW,302,0.0,0.0,100,0.00,,,0.00,VWS V13.01,2013-01-04 03:03:00,
2013-01-03 21:04:00,24.3,24.3,29.56,WNW,302,0.0,0.0,100,0.00,,,0.00,VWS V13.01,2013-01-04 03:04:00,
2013-01-03 21:06:00,24.1,24.1,29.56,WNW,302,0.0,0.0,100,0.00,,,0.00,VWS V13.01,2013-01-04 03:06:00,
2013-01-03 21:08:00,24.1,24.1,29.56,WNW,302,0.0,0.0,100,0.00,,,0.00,VWS V13.01,2013-01-04 03:08:00,
2013-01-03 21:09:00,24.1,24.1,29.56,WNW,302,0.0,0.0,100,0.00,,,0.00,VWS V13.01,2013-01-04 03:09:00,
2013-01-03 21:11:00,24.1,24.1,29.56,WNW,302,0.0,0.0,100,0.00,,,0.00,VWS V13.01,2013-01-04 03:11:00,
2013-01-03 21:13:00,24.6,24.6,29.56,WNW,302,0.0,0.0,100,0.00,,,0.00,VWS V13.01,2013-01-04 03:13:00,
2013-01-03 21:14:00,24.8,24.8,29.56,WNW,302,0.0,0.0,100,0.00,,,0.00,VWS V13.01,2013-01-04 03:14:00,
2013-01-03 21:15:00,25.2,25.2,29.56,WNW,302,0.0,0.0,100,0.00,,,0.00,VWS V13.01,2013-01-04 03:15:00,
2013-01-03 21:16:00,25.0,25.0,29.56,WNW,302,0.0,0.0,100,0.00,,,0.00,VWS V13.01,2013-01-04 03:16:00,
2013-01-03 21:18:00,24.6,24.6,29.56,WNW,302,0.0,0.0,100,0.00,,,0.00,VWS V13.01,2013-01-04 03:18:00,
2013-01-03 21:19:00,24.6,24.6,29.56,WNW,302,0.0,0.0,100,0.00,,,0.00,VWS V13.01,2013-01-04 03:19:00,
2013-01-03 21:20:00,24.6,24.6,29.56,WNW,302,0.0,0.0,100,0.00,,,0.00,VWS V13.01,2013-01-04 03:20:00,
2013-01-03 21:21:00,24.3,24.3,29.56,WNW,302,0.0,0.0,100,0.00,,,0.00,VWS V13.01,2013-01-04 03:21:00,
2013-01-03 21:23:00,24.1,24.1,29.56,WNW,302,0.0,0.0,100,0.00,,,0.00,VWS V13.01,2013-01-04 03:23:00,
2013-01-03 21:24:00,24.1,24.1,29.56,WNW,302,0.0,0.0,100,0.00,,,0.00,VWS V13.01,2013-01-04 03:24:00,
2013-01-03 21:25:00,24.1,24.1,29.56,WNW,302,0.0,0.0,100,0.00,,,0.00,VWS V13.01,2013-01-04 03:25:00,
2013-01-03 21:26:00,24.1,24.1,29.56,WNW,302,0.0,0.0,100,0.00,,,0.00,VWS V13.01,2013-01-04 03:26:00,
2013-01-03 21:28:00,24.1,24.1,29.56,WNW,302,0.0,0.0,100,0.00,,,0.00,VWS V13.01,2013-01-04 03:28:00,
2013-01-03 21:30:00,24.1,24.1,29.56,WNW,302,0.0,0.0,100,0.00,,,0.00,VWS V13.01,2013-01-04 03:30:00,
2013-01-03 21:31:00,23.9,23.9,29.56,WNW,302,0.0,0.0,100,0.00,,,0.00,VWS V13.01,2013-01-04 03:31:00,
2013-01-03 21:33:00,23.7,23.7,29.56,WNW,302,0.0,0.0,100,0.00,,,0.00,VWS V13.01,2013-01-04 03:33:00,
2013-01-03 21:35:00,23.7,23.7,29.56,WNW,302,0.0,0.0,100,0.00,,,0.00,VWS V13.01,2013-01-04 03:35:00,
2013-01-03 21:36:00,23.5,23.5,29.56,WNW,302,0.0,0.0,100,0.00,,,0.00,VWS V13.01,2013-01-04 03:36:00,
2013-01-03 21:38:00,23.5,23.5,29.56,WNW,302,0.0,0.0,100,0.00,,,0.00,VWS V13.01,2013-01-04 03:38:00,
2013-01-03 21:40:00,23.5,23.5,29.56,WNW,302,0.0,0.0,100,0.00,,,0.00,VWS V13.01,2013-01-04 03:40:00,
2013-01-03 21:42:00,23.4,23.4,29.56,WNW,302,0.0,0.0,100,0.00,,,0.00,VWS V13.01,2013-01-04 03:42:00,
2013-01-03 21:43:00,23.4,23.4,29.56,WNW,302,0.0,0.0,100,0.00,,,0.00,VWS V13.01,2013-01-04 03:43:00,
2013-01-03 21:45:00,23.2,23.2,29.56,WNW,302,0.0,0.0,100,0.00,,,0.00,VWS V13.01,2013-01-04 03:45:00,
2013-01-03 21:47:00,23.2,23.2,29.56,WNW,302,0.0,0.0,100,0.00,,,0.00,VWS V13.01,2013-01-04 03:47:00,
2013-01-03 21:49:00,23.2,23.2,29.56,WNW,302,0.0,0.0,100,0.00,,,0.00,VWS V13.01,2013-01-04 03:49:00,
2013-01-03 21:50:00,23.2,23.2,29.56,WNW,302,0.0,0.0,100,0.00,,,0.00,VWS V13.01,2013-01-04 03:50:00,
2013-01-03 21:52:00,23.4,23.4,29.56,WNW,302,0.0,0.0,100,0.00,,,0.00,VWS V13.01,2013-01-04 03:52:00,
2013-01-03 21:54:00,23.4,23.4,29.56,WNW,302,0.0,0.0,100,0.00,,,0.00,VWS V13.01,2013-01-04 03:54:00,
2013-01-03 21:55:00,23.4,23.4,29.56,WNW,302,0.0,0.0,100,0.00,,,0.00,VWS V13.01,2013-01-04 03:55:00,
2013-01-03 21:57:00,23.5,23.5,29.56,WNW,302,0.0,0.0,100,0.00,,,0.00,VWS V13.01,2013-01-04 03:57:00,
2013-01-03 21:59:00,23.5,23.5,29.56,WNW,302,0.0,0.0,100,0.00,,,0.00,VWS V13.01,2013-01-04 03:59:00,
2013-01-03 22:00:00,23.4,23.4,29.56,WNW,302,0.0,0.0,100,0.00,,,0.00,VWS V13.01,2013-01-04 04:00:00,
2013-01-03 22:02:00,23.2,23.2,29.56,WNW,302,0.0,0.0,100,0.00,,,0.00,VWS V13.01,2013-01-04 04:02:00,
2013-01-03 22:04:00,23.2,23.2,29.56,WNW,302,0.0,0.0,100,0.00,,,0.00,VWS V13.01,2013-01-04 04:04:00,
2013-01-03 22:05:00,23.2,23.2,29.56,WNW,302,0.0,0.0,100,0.00,,,0.00,VWS V13.01,2013-01-04 04:05:00,
2013-01-03 22:07:00,23.4,23.4,29.56,WNW,302,0.0,0.0,100,0.00,,,0.00,VWS V13.01,2013-01-04 04:07:00,
2013-01-03 22:09:00,23.5,23.5,29.56,WNW,302,0.0,0.0,100,0.00,,,0.00,VWS V13.01,2013-01-04 04:09:00,
2013-01-03 22:10:00,23.9,23.9,29.56,WNW,302,0.0,0.0,100,0.00,,,0.00,VWS V13.01,2013-01-04 04:10:00,
2013-01-03 22:12:00,24.1,24.1,29.56,WNW,302,0.0,0.0,100,0.00,,,0.00,VWS V13.01,2013-01-04 04:12:00,
2013-01-03 22:14:00,24.3,24.3,29.56,WNW,302,0.0,0.0,100,0.00,,,0.00,VWS V13.01,2013-01-04 04:14:00,
2013-01-03 22:15:00,24.3,24.3,29.56,WNW,302,0.0,0.0,100,0.00,,,0.00,VWS V13.01,2013-01-04 04:15:00,
2013-01-03 22:17:00,24.3,24.3,29.56,WNW,302,0.0,0.0,100,0.00,,,0.00,VWS V13.01,2013-01-04 04:17:00,
2013-01-03 22:19:00,24.1,24.1,29.56,WNW,302,0.0,0.0,100,0.00,,,0.00,VWS V13.01,2013-01-04 04:19:00,
2013-01-03 22:20:00,23.9,23.9,29.56,WNW,302,0.0,0.0,100,0.00,,,0.00,VWS V13.01,2013-01-04 04:20:00,
2013-01-03 22:22:00,23.7,23.7,29.56,WNW,302,0.0,0.0,100,0.00,,,0.00,VWS V13.01,2013-01-04 04:22:00,
2013-01-03 22:24:00,23.5,23.5,29.56,WNW,302,0.0,0.0,100,0.00,,,0.00,VWS V13.01,2013-01-04 04:24:00,
2013-01-03 22:25:00,23.5,23.5,29.56,WNW,302,0.0,0.0,100,0.00,,,0.00,VWS V13.01,2013-01-04 04:25:00,
2013-01-03 22:27:00,23.5,23.5,29.56,WNW,302,0.0,0.0,100,0.00,,,0.00,VWS V13.01,2013-01-04 04:27:00,
2013-01-03 22:29:00,23.2,23.2,29.56,WNW,302,0.0,0.0,100,0.00,,,0.00,VWS V13.01,2013-01-04 04:29:00,
2013-01-03 22:30:00,23.0,23.0,29.56,WNW,302,0.0,0.0,100,0.00,,,0.00,VWS V13.01,2013-01-04 04:30:00,
2013-01-03 22:32:00,22.8,22.8,29.56,WNW,302,0.0,0.0,100,0.00,,,0.00,VWS V13.01,2013-01-04 04:32:00,
2013-01-03 22:34:00,22.6,22.6,29.56,WNW,302,0.0,0.0,100,0.00,,,0.00,VWS V13.01,2013-01-04 04:34:00,
2013-01-03 22:35:00,22.5,22.5,29.56,WNW,302,0.0,0.0,100,0.00,,,0.00,VWS V13.01,2013-01-04 04:35:00,
2013-01-03 22:37:00,22.3,22.3,29.56,WNW,302,0.0,0.0,100,0.00,,,0.00,VWS V13.01,2013-01-04 04:37:00,
2013-01-03 22:39:00,22.6,22.6,29.56,WNW,302,0.0,0.0,100,0.00,,,0.00,VWS V13.01,2013-01-04 04:39:00,
2013-01-03 22:40:00,22.6,22.6,29.56,WNW,302,0.0,0.0,100,0.00,,,0.00,VWS V13.01,2013-01-04 04:40:00,
2013-01-03 22:42:00,22.5,22.5,29.56,WNW,302,0.0,0.0,100,0.00,,,0.00,VWS V13.01,2013-01-04 04:42:00,
2013-01-03 22:44:00,22.5,22.5,29.56,WNW,302,0.0,0.0,100,0.00,,,0.00,VWS V13.01,2013-01-04 04:44:00,
2013-01-03 22:45:00,22.6,22.6,29.56,WNW,302,0.0,0.0,100,0.00,,,0.00,VWS V13.01,2013-01-04 04:45:00,
2013-01-03 22:47:00,22.6,22.6,29.56,WNW,302,0.0,0.0,100,0.00,,,0.00,VWS V13.01,2013-01-04 04:47:00,
2013-01-03 22:49:00,22.8,22.8,29.56,WNW,302,0.0,0.0,100,0.00,,,0.00,VWS V13.01,2013-01-04 04:49:00,
2013-01-03 22:50:00,22.8,22.8,29.56,WNW,302,0.0,0.0,100,0.00,,,0.00,VWS V13.01,2013-01-04 04:50:00,
2013-01-03 22:52:00,23.0,23.0,29.56,WNW,302,0.0,0.0,100,0.00,,,0.00,VWS V13.01,2013-01-04 04:52:00,
2013-01-03 22:54:00,23.2,23.2,29.56,WNW,302,0.0,0.0,100,0.00,,,0.00,VWS V13.01,2013-01-04 04:54:00,
2013-01-03 22:55:00,23.2,23.2,29.56,WNW,302,0.0,0.0,100,0.00,,,0.00,VWS V13.01,2013-01-04 04:55:00,
2013-01-03 22:57:00,22.8,22.8,29.56,WNW,302,0.0,0.0,100,0.00,,,0.00,VWS V13.01,2013-01-04 04:57:00,
2013-01-03 22:59:00,23.0,23.0,29.56,WNW,302,0.0,0.0,100,0.00,,,0.00,VWS V13.01,2013-01-04 04:59:00,
2013-01-03 23:00:00,23.0,23.0,29.56,WNW,302,0.0,0.0,100,0.00,,,0.00,VWS V13.01,2013-01-04 05:00:00,
2013-01-03 23:01:00,23.0,23.0,29.56,WNW,302,0.0,0.0,100,0.00,,,0.00,VWS V13.01,2013-01-04 05:01:00,
2013-01-03 23:03:00,23.0,23.0,29.56,WNW,302,0.0,0.0,100,0.00,,,0.00,VWS V13.01,2013-01-04 05:03:00,
2013-01-03 23:05:00,22.8,22.8,29.56,WNW,302,0.0,0.0,100,0.00,,,0.00,VWS V13.01,2013-01-04 05:05:00,
2013-01-03 23:06:00,22.8,22.8,29.56,WNW,302,0.0,0.0,100,0.00,,,0.00,VWS V13.01,2013-01-04 05:06:00,
2013-01-03 23:08:00,22.8,22.8,29.56,WNW,302,0.0,0.0,100,0.00,,,0.00,VWS V13.01,2013-01-04 05:08:00,
2013-01-03 23:10:00,22.8,22.8,29.56,WNW,302,0.0,0.0,100,0.00,,,0.00,VWS V13.01,2013-01-04 05:10:00,
2013-01-03 23:11:00,22.8,22.8,29.56,WNW,302,0.0,0.0,100,0.00,,,0.00,VWS V13.01,2013-01-04 05:11:00,
2013-01-03 23:13:00,22.5,22.5,29.56,WNW,302,0.0,0.0,100,0.00,,,0.00,VWS V13.01,2013-01-04 05:13:00,
2013-01-03 23:15:00,22.3,22.3,29.56,WNW,302,0.0,0.0,100,0.00,,,0.00,VWS V13.01,2013-01-04 05:15:00,
2013-01-03 23:16:00,22.3,22.3,29.56,WNW,302,0.0,0.0,100,0.00,,,0.00,VWS V13.01,2013-01-04 05:16:00,
2013-01-03 23:18:00,22.3,22.3,29.56,WNW,303,0.0,0.0,100,0.00,,,0.00,VWS V13.01,2013-01-04 05:18:00,
2013-01-03 23:20:00,22.6,22.6,29.56,WNW,302,0.0,0.0,100,0.00,,,0.00,VWS V13.01,2013-01-04 05:20:00,
2013-01-03 23:21:00,22.8,22.8,29.56,WNW,302,0.0,0.0,100,0.00,,,0.00,VWS V13.01,2013-01-04 05:21:00,
2013-01-03 23:23:00,23.0,23.0,29.56,WNW,302,0.0,0.0,100,0.00,,,0.00,VWS V13.01,2013-01-04 05:23:00,
2013-01-03 23:25:00,23.0,23.0,29.56,WNW,302,0.0,0.0,100,0.00,,,0.00,VWS V13.01,2013-01-04 05:25:00,
2013-01-03 23:26:00,23.0,23.0,29.56,WNW,302,0.0,0.0,100,0.00,,,0.00,VWS V13.01,2013-01-04 05:26:00,
2013-01-03 23:28:00,23.0,23.0,29.56,WNW,303,0.0,0.0,100,0.00,,,0.00,VWS V13.01,2013-01-04 05:28:00,
2013-01-03 23:30:00,23.0,23.0,29.56,WNW,302,0.0,0.0,100,0.00,,,0.00,VWS V13.01,2013-01-04 05:30:00,
2013-01-03 23:31:00,23.0,23.0,29.56,WNW,302,0.0,0.0,100,0.00,,,0.00,VWS V13.01,2013-01-04 05:31:00,
2013-01-03 23:33:00,23.4,23.4,29.56,WNW,302,0.0,0.0,100,0.00,,,0.00,VWS V13.01,2013-01-04 05:33:00,
2013-01-03 23:35:00,23.2,23.2,29.56,WNW,302,0.0,0.0,100,0.00,,,0.00,VWS V13.01,2013-01-04 05:35:00,
2013-01-03 23:36:00,23.4,23.4,29.56,WNW,302,0.0,0.0,100,0.00,,,0.00,VWS V13.01,2013-01-04 05:36:00,
2013-01-03 23:38:00,23.4,23.4,29.56,WNW,302,0.0,0.0,100,0.00,,,0.00,VWS V13.01,2013-01-04 05:38:00,
2013-01-03 23:40:00,23.4,23.4,29.56,WNW,302,0.0,0.0,100,0.00,,,0.00,VWS V13.01,2013-01-04 05:40:00,
2013-01-03 23:41:00,23.5,23.5,29.56,WNW,302,0.0,0.0,100,0.00,,,0.00,VWS V13.01,2013-01-04 05:41:00,
2013-01-03 23:43:00,23.9,23.9,29.56,WNW,302,0.0,0.0,100,0.00,,,0.00,VWS V13.01,2013-01-04 05:43:00,
2013-01-03 23:45:00,23.9,23.9,29.56,WNW,302,0.0,0.0,100,0.00,,,0.00,VWS V13.01,2013-01-04 05:45:00,
2013-01-03 23:46:00,24.1,24.1,29.56,WNW,302,0.0,0.0,100,0.00,,,0.00,VWS V13.01,2013-01-04 05:46:00,
2013-01-03 23:48:00,24.1,24.1,29.56,WNW,302,0.0,0.0,100,0.00,,,0.00,VWS V13.01,2013-01-04 05:48:00,
2013-01-03 23:50:00,24.1,24.1,29.56,WNW,302,0.0,0.0,100,0.00,,,0.00,VWS V13.01,2013-01-04 05:50:00,
2013-01-03 23:51:00,24.1,24.1,29.56,WNW,302,0.0,0.0,100,0.00,,,0.00,VWS V13.01,2013-01-04 05:51:00,
2013-01-03 23:53:00,24.1,24.1,29.56,WNW,302,0.0,0.0,100,0.00,,,0.00,VWS V13.01,2013-01-04 05:53:00,
2013-01-03 23:55:00,24.1,21.8,29.56,WNW,302,0.0,0.0,91,0.00,,,0.00,VWS V13.01,2013-01-04 05:55:00,
2013-01-03 23:56:00,24.1,21.8,29.56,WNW,302,0.0,0.0,91,0.00,,,0.00,VWS V13.01,2013-01-04 05:56:00,
2013-01-03 23:58:00,24.1,21.8,29.56,WNW,302,0.0,0.0,91,0.00,,,0.00,VWS V13.01,2013-01-04 05:58:00,